Wetterdaten: Sonntag, 28.02.2010
Datum Zeit Temp. Innen Temp. Aussen UV X Diff Temp. Feuchte Inne Feuchte Auss Sonnenschein Luftdruck Regen ab 0,1 Wind Sonnenschein Windben
28.02.2010 00:00 14,1 C 7,3 C 0,0 UV-I 0,0 C 49 % 74 % 0 % 990,4 hPa 0,0 l/m 1,2 km/h (1 Bft) 0 min 2,6 km/h (1 Bft)
28.02.2010 00:02 14,1 C 7,3 C 0,0 UV-I 0,0 C 49 % 74 % 0 % 990,4 hPa 0,0 l/m 1,6 km/h (1 Bft) 0 min 5,5 km/h (1 Bft)
28.02.2010 00:06 14,1 C 7,3 C 0,0 UV-I 0,0 C 49 % 73 % 0 % 990,4 hPa 0,0 l/m 2,4 km/h (1 Bft) 0 min 5,5 km/h (1 Bft)
28.02.2010 00:08 14,1 C 7,3 C 0,0 UV-I 0,0 C 49 % 73 % 0 % 990,4 hPa 0,0 l/m 2,4 km/h (1 Bft) 0 min 6,5 km/h (2 Bft)
28.02.2010 00:10 14,1 C 7,3 C 0,0 UV-I 0,0 C 49 % 73 % 0 % 990,4 hPa 0,0 l/m 3,2 km/h (1 Bft) 0 min 4,8 km/h (1 Bft)
28.02.2010 00:12 13,9 C 7,3 C 0,0 UV-I 0,0 C 49 % 73 % 0 % 990,1 hPa 0,0 l/m 2,8 km/h (1 Bft) 0 min 3,6 km/h (1 Bft)
28.02.2010 00:14 14,1 C 7,3 C 0,0 UV-I 0,0 C 49 % 73 % 0 % 990,1 hPa 0,0 l/m 2,4 km/h (1 Bft) 0 min 3,6 km/h (1 Bft)
28.02.2010 00:16 14,1 C 7,3 C 0,0 UV-I 0,0 C 49 % 73 % 0 % 990,1 hPa 0,0 l/m 3,2 km/h (1 Bft) 0 min 3,6 km/h (1 Bft)
28.02.2010 00:18 14,1 C 7,4 C 0,0 UV-I 0,0 C 49 % 73 % 0 % 990,1 hPa 0,0 l/m 3,6 km/h (1 Bft) 0 min 0,0 km/h (0 Bft)
28.02.2010 00:20 13,9 C 7,4 C 0,0 UV-I 0,0 C 49 % 73 % 0 % 990,1 hPa 0,0 l/m 3,6 km/h (1 Bft) 0 min 0,0 km/h (0 Bft)
28.02.2010 00:22 14,1 C 7,5 C 0,0 UV-I 0,0 C 49 % 72 % 0 % 990,1 hPa 0,0 l/m 3,2 km/h (1 Bft) 0 min 10,1 km/h (2 Bft)
28.02.2010 00:24 14,1 C 7,5 C 0,0 UV-I 0,0 C 49 % 72 % 0 % 990,1 hPa 0,0 l/m 4,4 km/h (1 Bft) 0 min 2,9 km/h (1 Bft)
28.02.2010 00:26 13,9 C 7,5 C 0,0 UV-I 0,0 C 49 % 72 % 0 % 990,1 hPa 0,0 l/m 5,6 km/h (1 Bft) 0 min 9,9 km/h (2 Bft)
28.02.2010 00:28 13,9 C 7,5 C 0,0 UV-I 0,2 C 49 % 72 % 0 % 990,1 hPa 0,0 l/m 6,8 km/h (2 Bft) 0 min 6,7 km/h (2 Bft)
28.02.2010 00:30 13,9 C 7,6 C 0,0 UV-I 0,2 C 49 % 72 % 0 % 990,1 hPa 0,0 l/m 7,2 km/h (2 Bft) 0 min 4,3 km/h (1 Bft)
28.02.2010 00:32 13,9 C 7,7 C 0,0 UV-I 0,3 C 49 % 72 % 0 % 989,7 hPa 0,0 l/m 8,4 km/h (2 Bft) 0 min 14,7 km/h (3 Bft)
28.02.2010 00:34 13,9 C 7,6 C 0,0 UV-I 0,5 C 49 % 71 % 0 % 989,7 hPa 0,0 l/m 8,4 km/h (2 Bft) 0 min 3,1 km/h (1 Bft)
28.02.2010 00:36 13,9 C 7,7 C 0,0 UV-I 0,4 C 49 % 71 % 0 % 989,7 hPa 0,0 l/m 7,2 km/h (2 Bft) 0 min 0,0 km/h (0 Bft)
28.02.2010 00:38 13,9 C 7,7 C 0,0 UV-I 0,5 C 49 % 71 % 0 % 989,7 hPa 0,0 l/m 4,8 km/h (1 Bft) 0 min 2,6 km/h (1 Bft)
28.02.2010 00:40 14,1 C 7,7 C 0,0 UV-I 0,5 C 49 % 71 % 0 % 989,7 hPa 0,0 l/m 4,0 km/h (1 Bft) 0 min 2,4 km/h (1 Bft)
28.02.2010 00:42 14,1 C 7,7 C 0,0 UV-I 0,6 C 49 % 71 % 0 % 989,7 hPa 0,0 l/m 3,2 km/h (1 Bft) 0 min 2,9 km/h (1 Bft)
28.02.2010 00:44 13,9 C 7,8 C 0,0 UV-I 0,5 C 49 % 71 % 0 % 989,7 hPa 0,0 l/m 2,0 km/h (1 Bft) 0 min 0,0 km/h (0 Bft)
28.02.2010 00:46 13,9 C 7,8 C 0,0 UV-I 0,5 C 49 % 71 % 0 % 989,7 hPa 0,0 l/m 1,2 km/h (1 Bft) 0 min 0,0 km/h (0 Bft)
28.02.2010 00:48 14,1 C 7,9 C 0,0 UV-I 0,4 C 49 % 71 % 0 % 989,7 hPa 0,0 l/m 1,2 km/h (1 Bft) 0 min 0,0 km/h (0 Bft)
28.02.2010 00:50 13,9 C 7,9 C 0,0 UV-I 0,5 C 49 % 71 % 0 % 989,7 hPa 0,0 l/m 1,6 km/h (1 Bft) 0 min 0,0 km/h (0 Bft)
28.02.2010 00:52 13,9 C 7,9 C 0,0 UV-I 0,5 C 49 % 71 % 0 % 989,4 hPa 0,0 l/m 1,6 km/h (1 Bft) 0 min 6,0 km/h (2 Bft)
28.02.2010 00:54 13,9 C 7,9 C 0,0 UV-I 0,5 C 49 % 71 % 0 % 989,4 hPa 0,0 l/m 2,4 km/h (1 Bft) 0 min 2,9 km/h (1 Bft)
28.02.2010 00:56 14,1 C 7,9 C 0,0 UV-I 0,5 C 49 % 71 % 0 % 989,4 hPa 0,0 l/m 2,4 km/h (1 Bft) 0 min 3,6 km/h (1 Bft)
28.02.2010 00:58 13,9 C 7,9 C 0,0 UV-I 0,5 C 49 % 71 % 0 % 989,4 hPa 0,0 l/m 2,4 km/h (1 Bft) 0 min 0,0 km/h (0 Bft)
28.02.2010 01:00 13,9 C 7,9 C 0,0 UV-I 0,5 C 49 % 71 % 0 % 989,4 hPa 0,0 l/m 3,6 km/h (1 Bft) 0 min 4,6 km/h (1 Bft)
28.02.2010 01:02 14,1 C 7,9 C 0,0 UV-I 0,5 C 49 % 71 % 0 % 989,4 hPa 0,0 l/m 3,6 km/h (1 Bft) 0 min 0,0 km/h (0 Bft)
28.02.2010 01:04 14,1 C 7,9 C 0,0 UV-I 0,5 C 49 % 70 % 0 % 989,4 hPa 0,0 l/m 3,2 km/h (1 Bft) 0 min 0,0 km/h (0 Bft)
28.02.2010 01:06 13,9 C 7,9 C 0,0 UV-I 0,5 C 49 % 70 % 0 % 989,4 hPa 0,0 l/m 2,8 km/h (1 Bft) 0 min 4,6 km/h (1 Bft)
28.02.2010 01:10 14,1 C 7,9 C 0,0 UV-I 0,4 C 49 % 71 % 0 % 989,4 hPa 0,0 l/m 2,4 km/h (1 Bft) 0 min 4,1 km/h (1 Bft)
28.02.2010 01:12 14,1 C 7,9 C 0,0 UV-I 0,4 C 49 % 71 % 0 % 989,2 hPa 0,0 l/m 1,6 km/h (1 Bft) 0 min 2,6 km/h (1 Bft)
28.02.2010 01:14 13,9 C 7,9 C 0,0 UV-I 0,3 C 49 % 71 % 0 % 989,2 hPa 0,0 l/m 2,0 km/h (1 Bft) 0 min 3,1 km/h (1 Bft)
28.02.2010 01:16 14,1 C 7,9 C 0,0 UV-I 0,3 C 49 % 71 % 0 % 989,2 hPa 0,0 l/m 2,4 km/h (1 Bft) 0 min 0,0 km/h (0 Bft)
28.02.2010 01:18 14,1 C 7,9 C 0,0 UV-I 0,2 C 49 % 71 % 0 % 989,2 hPa 0,0 l/m 2,4 km/h (1 Bft) 0 min 0,0 km/h (0 Bft)
28.02.2010 01:20 14,1 C 7,9 C 0,0 UV-I 0,2 C 49 % 71 % 0 % 989,2 hPa 0,0 l/m 2,8 km/h (1 Bft) 0 min 2,4 km/h (1 Bft)
28.02.2010 01:22 14,1 C 7,9 C 0,0 UV-I 0,2 C 49 % 71 % 0 % 989,2 hPa 0,0 l/m 2,8 km/h (1 Bft) 0 min 2,6 km/h (1 Bft)
28.02.2010 01:24 14,1 C 7,9 C 0,0 UV-I 0,2 C 49 % 71 % 0 % 989,2 hPa 0,0 l/m 2,4 km/h (1 Bft) 0 min 2,9 km/h (1 Bft)
28.02.2010 01:26 14,1 C 7,9 C 0,0 UV-I 0,1 C 49 % 72 % 0 % 989,2 hPa 0,0 l/m 2,0 km/h (1 Bft) 0 min 0,0 km/h (0 Bft)
28.02.2010 01:28 14,1 C 7,9 C 0,0 UV-I 0,1 C 49 % 72 % 0 % 989,2 hPa 0,0 l/m 1,2 km/h (1 Bft) 0 min 2,6 km/h (1 Bft)
28.02.2010 01:32 14,1 C 7,9 C 0,0 UV-I 0,0 C 49 % 72 % 0 % 988,9 hPa 0,0 l/m 1,2 km/h (1 Bft) 0 min 0,0 km/h (0 Bft)
28.02.2010 01:34 14,1 C 7,9 C 0,0 UV-I 0,0 C 49 % 72 % 0 % 988,9 hPa 0,0 l/m 1,2 km/h (1 Bft) 0 min 5,1 km/h (1 Bft)
28.02.2010 01:36 14,1 C 7,9 C 0,0 UV-I 0,0 C 49 % 72 % 0 % 988,9 hPa 0,0 l/m 2,0 km/h (1 Bft) 0 min 2,9 km/h (1 Bft)
28.02.2010 01:40 14,1 C 7,9 C 0,0 UV-I 0,0 C 49 % 72 % 0 % 988,9 hPa 0,0 l/m 2,0 km/h (1 Bft) 0 min 2,4 km/h (1 Bft)
28.02.2010 01:42 14,1 C 7,9 C 0,0 UV-I 0,0 C 49 % 72 % 0 % 988,9 hPa 0,0 l/m 2,4 km/h (1 Bft) 0 min 4,3 km/h (1 Bft)
28.02.2010 01:46 13,9 C 7,9 C 0,0 UV-I 0,0 C 49 % 72 % 0 % 988,9 hPa 0,0 l/m 3,6 km/h (1 Bft) 0 min 4,6 km/h (1 Bft)
28.02.2010 01:48 14,1 C 7,9 C 0,0 UV-I 0,0 C 49 % 72 % 0 % 988,9 hPa 0,0 l/m 4,8 km/h (1 Bft) 0 min 7,2 km/h (2 Bft)
28.02.2010 01:50 14,1 C 7,9 C 0,0 UV-I 0,0 C 49 % 72 % 0 % 988,9 hPa 0,0 l/m 6,4 km/h (2 Bft) 0 min 5,1 km/h (1 Bft)
28.02.2010 01:52 14,1 C 7,9 C 0,0 UV-I 0,0 C 49 % 72 % 0 % 988,3 hPa 0,0 l/m 6,8 km/h (2 Bft) 0 min 2,9 km/h (1 Bft)
28.02.2010 01:54 14,1 C 7,9 C 0,0 UV-I 0,0 C 49 % 72 % 0 % 988,3 hPa 0,0 l/m 6,4 km/h (2 Bft) 0 min 6,5 km/h (2 Bft)
28.02.2010 01:58 14,1 C 8,0 C 0,0 UV-I 0,1 C 49 % 72 % 0 % 988,3 hPa 0,0 l/m 7,6 km/h (2 Bft) 0 min 6,3 km/h (2 Bft)
28.02.2010 02:02 14,1 C 8,1 C 0,0 UV-I 0,0 C 49 % 72 % 0 % 988,3 hPa 0,0 l/m 8,4 km/h (2 Bft) 0 min 9,6 km/h (2 Bft)
28.02.2010 02:04 14,1 C 8,0 C 0,0 UV-I 0,1 C 49 % 72 % 0 % 988,3 hPa 0,0 l/m 9,6 km/h (2 Bft) 0 min 13,7 km/h (3 Bft)
28.02.2010 02:06 14,1 C 8,1 C 0,0 UV-I 0,0 C 49 % 72 % 0 % 988,3 hPa 0,0 l/m 10,8 km/h (2 Bft) 0 min 12,3 km/h (3 Bft)
28.02.2010 02:08 14,1 C 8,1 C 0,0 UV-I 0,0 C 49 % 72 % 0 % 988,3 hPa 0,0 l/m 12,0 km/h (2 Bft) 0 min 19,0 km/h (3 Bft)
28.02.2010 02:10 14,1 C 8,1 C 0,0 UV-I 0,0 C 49 % 72 % 0 % 988,3 hPa 0,0 l/m 12,0 km/h (2 Bft) 0 min 5,8 km/h (2 Bft)
28.02.2010 02:12 14,1 C 8,1 C 0,0 UV-I 0,0 C 49 % 73 % 0 % 988,4 hPa 0,0 l/m 13,3 km/h (3 Bft) 0 min 19,0 km/h (3 Bft)
28.02.2010 02:14 14,1 C 8,1 C 0,0 UV-I 0,0 C 49 % 73 % 0 % 988,4 hPa 0,0 l/m 13,3 km/h (3 Bft) 0 min 10,1 km/h (2 Bft)
28.02.2010 02:16 14,1 C 8,2 C 0,0 UV-I 0,0 C 49 % 73 % 0 % 988,4 hPa 0,0 l/m 12,4 km/h (3 Bft) 0 min 4,6 km/h (1 Bft)
28.02.2010 02:20 14,1 C 8,1 C 0,0 UV-I 0,0 C 49 % 74 % 0 % 988,4 hPa 0,0 l/m 10,8 km/h (2 Bft) 0 min 9,6 km/h (2 Bft)
28.02.2010 02:22 14,1 C 8,1 C 0,0 UV-I 0,0 C 49 % 74 % 0 % 988,4 hPa 0,0 l/m 10,0 km/h (2 Bft) 0 min 12,8 km/h (3 Bft)
28.02.2010 02:24 14,1 C 8,1 C 0,0 UV-I 0,0 C 49 % 74 % 0 % 988,4 hPa 0,0 l/m 9,2 km/h (2 Bft) 0 min 10,3 km/h (2 Bft)
28.02.2010 02:28 14,1 C 8,1 C 0,0 UV-I 0,0 C 50 % 74 % 0 % 988,4 hPa 0,0 l/m 10,0 km/h (2 Bft) 0 min 11,8 km/h (2 Bft)
28.02.2010 02:30 14,1 C 8,0 C 0,0 UV-I 0,0 C 50 % 74 % 0 % 988,4 hPa 0,0 l/m 9,6 km/h (2 Bft) 0 min 13,0 km/h (3 Bft)
28.02.2010 02:32 14,1 C 8,0 C 0,0 UV-I 0,0 C 50 % 75 % 0 % 988,1 hPa 0,0 l/m 10,0 km/h (2 Bft) 0 min 7,7 km/h (2 Bft)
28.02.2010 02:34 14,1 C 8,0 C 0,0 UV-I 0,0 C 50 % 75 % 0 % 988,1 hPa 0,0 l/m 9,6 km/h (2 Bft) 0 min 8,7 km/h (2 Bft)
28.02.2010 02:36 14,1 C 8,0 C 0,0 UV-I 0,0 C 50 % 75 % 0 % 988,1 hPa 0,0 l/m 10,0 km/h (2 Bft) 0 min 2,6 km/h (1 Bft)
28.02.2010 02:38 14,1 C 8,0 C 0,0 UV-I 0,0 C 50 % 76 % 0 % 988,1 hPa 0,0 l/m 9,2 km/h (2 Bft) 0 min 7,9 km/h (2 Bft)
28.02.2010 02:40 14,1 C 8,0 C 0,0 UV-I 0,0 C 50 % 76 % 0 % 988,1 hPa 0,0 l/m 10,4 km/h (2 Bft) 0 min 16,8 km/h (3 Bft)
28.02.2010 02:42 14,1 C 7,9 C 0,0 UV-I 0,0 C 50 % 76 % 0 % 988,1 hPa 0,0 l/m 11,2 km/h (2 Bft) 0 min 8,2 km/h (2 Bft)
28.02.2010 02:44 14,1 C 7,9 C 0,0 UV-I 0,0 C 50 % 77 % 0 % 988,1 hPa 0,0 l/m 11,6 km/h (2 Bft) 0 min 7,7 km/h (2 Bft)
28.02.2010 02:48 14,1 C 7,9 C 0,0 UV-I 0,0 C 50 % 78 % 0 % 988,1 hPa 0,0 l/m 10,0 km/h (2 Bft) 0 min 7,9 km/h (2 Bft)
28.02.2010 02:50 14,1 C 7,9 C 0,0 UV-I 0,0 C 50 % 78 % 0 % 988,1 hPa 0,0 l/m 9,6 km/h (2 Bft) 0 min 14,7 km/h (3 Bft)
28.02.2010 02:52 14,1 C 7,8 C 0,0 UV-I 0,0 C 50 % 78 % 0 % 987,7 hPa 0,0 l/m 7,2 km/h (2 Bft) 0 min 5,8 km/h (2 Bft)
28.02.2010 02:54 14,1 C 7,7 C 0,0 UV-I 0,0 C 50 % 79 % 0 % 987,7 hPa 0,0 l/m 7,2 km/h (2 Bft) 0 min 5,8 km/h (2 Bft)
28.02.2010 02:56 14,1 C 7,7 C 0,0 UV-I 0,0 C 51 % 79 % 0 % 987,7 hPa 0,0 l/m 6,8 km/h (2 Bft) 0 min 5,1 km/h (1 Bft)
28.02.2010 02:58 13,9 C 7,7 C 0,0 UV-I 0,0 C 51 % 79 % 0 % 987,7 hPa 0,0 l/m 6,8 km/h (2 Bft) 0 min 7,2 km/h (2 Bft)
28.02.2010 03:02 14,1 C 7,6 C 0,0 UV-I 0,0 C 51 % 80 % 0 % 987,7 hPa 0,0 l/m 5,6 km/h (1 Bft) 0 min 5,1 km/h (1 Bft)
28.02.2010 03:04 13,9 C 7,6 C 0,0 UV-I 0,0 C 51 % 80 % 0 % 987,7 hPa 0,0 l/m 5,6 km/h (1 Bft) 0 min 5,1 km/h (1 Bft)
28.02.2010 03:06 13,9 C 7,6 C 0,0 UV-I 0,0 C 51 % 81 % 0 % 987,7 hPa 0,0 l/m 5,6 km/h (1 Bft) 0 min 6,3 km/h (2 Bft)
28.02.2010 03:08 13,9 C 7,6 C 0,0 UV-I 0,0 C 51 % 81 % 0 % 987,7 hPa 0,0 l/m 6,0 km/h (2 Bft) 0 min 0,0 km/h (0 Bft)
28.02.2010 03:14 13,9 C 7,5 C 0,0 UV-I 0,0 C 51 % 82 % 0 % 986,9 hPa 0,0 l/m 6,0 km/h (2 Bft) 0 min 6,7 km/h (2 Bft)
28.02.2010 03:16 13,9 C 7,5 C 0,0 UV-I 0,0 C 51 % 82 % 0 % 986,9 hPa 0,0 l/m 6,4 km/h (2 Bft) 0 min 7,2 km/h (2 Bft)
28.02.2010 03:18 13,9 C 7,5 C 0,0 UV-I 0,0 C 52 % 82 % 0 % 986,9 hPa 0,0 l/m 6,8 km/h (2 Bft) 0 min 8,9 km/h (2 Bft)
28.02.2010 03:20 13,9 C 7,5 C 0,0 UV-I 0,0 C 52 % 82 % 0 % 986,9 hPa 0,0 l/m 7,2 km/h (2 Bft) 0 min 5,8 km/h (2 Bft)
28.02.2010 03:22 14,1 C 7,3 C 0,0 UV-I 0,0 C 52 % 83 % 0 % 986,9 hPa 0,0 l/m 7,2 km/h (2 Bft) 0 min 5,3 km/h (1 Bft)
28.02.2010 03:24 13,9 C 7,3 C 0,0 UV-I 0,0 C 52 % 83 % 0 % 986,9 hPa 0,0 l/m 6,8 km/h (2 Bft) 0 min 5,8 km/h (2 Bft)
28.02.2010 03:26 13,9 C 7,3 C 0,0 UV-I 0,0 C 52 % 83 % 0 % 986,9 hPa 0,0 l/m 6,8 km/h (2 Bft) 0 min 4,6 km/h (1 Bft)
28.02.2010 03:30 13,9 C 7,2 C 0,0 UV-I 0,0 C 52 % 83 % 0 % 986,9 hPa 0,0 l/m 6,0 km/h (2 Bft) 0 min 12,0 km/h (2 Bft)
28.02.2010 03:32 13,9 C 7,3 C 0,0 UV-I 0,0 C 52 % 83 % 0 % 986,2 hPa 0,1 l/m 6,4 km/h (2 Bft) 0 min 3,8 km/h (1 Bft)
28.02.2010 03:36 13,9 C 7,2 C 0,0 UV-I 0,0 C 52 % 84 % 0 % 986,2 hPa 0,0 l/m 7,6 km/h (2 Bft) 0 min 6,0 km/h (2 Bft)
28.02.2010 03:38 13,9 C 7,2 C 0,0 UV-I 0,0 C 52 % 84 % 0 % 986,2 hPa 0,0 l/m 8,0 km/h (2 Bft) 0 min 6,3 km/h (2 Bft)
28.02.2010 03:40 13,9 C 7,1 C 0,0 UV-I 0,0 C 52 % 84 % 0 % 986,2 hPa 0,0 l/m 8,4 km/h (2 Bft) 0 min 5,1 km/h (1 Bft)
28.02.2010 03:44 13,9 C 7,0 C 0,0 UV-I 0,0 C 52 % 84 % 0 % 986,2 hPa 0,0 l/m 8,4 km/h (2 Bft) 0 min 17,8 km/h (3 Bft)
28.02.2010 03:46 13,9 C 7,0 C 0,0 UV-I 0,0 C 52 % 84 % 0 % 986,2 hPa 0,0 l/m 7,6 km/h (2 Bft) 0 min 7,9 km/h (2 Bft)
28.02.2010 03:48 13,9 C 7,0 C 0,0 UV-I 0,0 C 52 % 84 % 0 % 986,2 hPa 0,0 l/m 6,4 km/h (2 Bft) 0 min 3,6 km/h (1 Bft)
28.02.2010 03:50 14,0 C 7,1 C 0,0 UV-I 0,0 C 52 % 84 % 0 % 986,2 hPa 0,0 l/m 5,6 km/h (1 Bft) 0 min 2,9 km/h (1 Bft)
28.02.2010 03:52 14,0 C 7,1 C 0,0 UV-I 0,0 C 52 % 84 % 0 % 985,9 hPa 0,0 l/m 5,2 km/h (1 Bft) 0 min 5,1 km/h (1 Bft)
28.02.2010 03:54 14,0 C 7,0 C 0,0 UV-I 0,0 C 53 % 84 % 0 % 985,9 hPa 0,0 l/m 4,4 km/h (1 Bft) 0 min 2,9 km/h (1 Bft)
28.02.2010 03:56 14,0 C 6,9 C 0,0 UV-I 0,0 C 53 % 85 % 0 % 985,9 hPa 0,0 l/m 5,2 km/h (1 Bft) 0 min 2,9 km/h (1 Bft)
28.02.2010 03:58 14,0 C 6,9 C 0,0 UV-I 0,0 C 53 % 85 % 0 % 985,9 hPa 0,0 l/m 5,2 km/h (1 Bft) 0 min 6,7 km/h (2 Bft)
28.02.2010 04:02 14,0 C 6,9 C 0,0 UV-I 0,0 C 53 % 85 % 0 % 985,9 hPa 0,0 l/m 5,6 km/h (1 Bft) 0 min 6,7 km/h (2 Bft)
28.02.2010 04:04 14,0 C 6,9 C 0,0 UV-I 0,0 C 53 % 85 % 0 % 985,9 hPa 0,0 l/m 7,2 km/h (2 Bft) 0 min 4,1 km/h (1 Bft)
28.02.2010 04:06 14,0 C 6,9 C 0,0 UV-I 0,0 C 53 % 85 % 0 % 985,9 hPa 0,0 l/m 6,4 km/h (2 Bft) 0 min 16,1 km/h (3 Bft)
28.02.2010 04:08 14,0 C 6,9 C 0,0 UV-I 0,0 C 53 % 85 % 0 % 985,9 hPa 0,0 l/m 7,2 km/h (2 Bft) 0 min 7,5 km/h (2 Bft)
28.02.2010 04:10 14,0 C 6,9 C 0,0 UV-I 0,0 C 53 % 85 % 0 % 985,9 hPa 0,0 l/m 7,6 km/h (2 Bft) 0 min 19,2 km/h (3 Bft)
28.02.2010 04:14 14,0 C 6,8 C 0,0 UV-I 0,0 C 53 % 85 % 0 % 985,5 hPa 0,0 l/m 8,4 km/h (2 Bft) 0 min 7,5 km/h (2 Bft)
28.02.2010 04:18 14,0 C 6,8 C 0,0 UV-I 0,0 C 53 % 85 % 0 % 985,5 hPa 0,0 l/m 8,8 km/h (2 Bft) 0 min 9,1 km/h (2 Bft)
28.02.2010 04:20 14,0 C 6,8 C 0,0 UV-I 0,0 C 53 % 85 % 0 % 985,5 hPa 0,0 l/m 8,8 km/h (2 Bft) 0 min 5,1 km/h (1 Bft)
28.02.2010 04:22 14,0 C 6,8 C 0,0 UV-I 0,0 C 53 % 85 % 0 % 985,5 hPa 0,0 l/m 8,0 km/h (2 Bft) 0 min 5,8 km/h (2 Bft)
28.02.2010 04:24 14,0 C 6,8 C 0,0 UV-I 0,0 C 53 % 85 % 0 % 985,5 hPa 0,0 l/m 8,8 km/h (2 Bft) 0 min 9,1 km/h (2 Bft)
28.02.2010 04:26 14,0 C 6,8 C 0,0 UV-I 0,0 C 53 % 85 % 0 % 985,5 hPa 0,0 l/m 8,0 km/h (2 Bft) 0 min 3,1 km/h (1 Bft)
28.02.2010 04:28 14,0 C 6,8 C 0,0 UV-I 0,0 C 53 % 85 % 0 % 985,5 hPa 0,0 l/m 7,6 km/h (2 Bft) 0 min 10,3 km/h (2 Bft)
28.02.2010 04:30 14,0 C 6,8 C 0,0 UV-I 0,0 C 53 % 85 % 0 % 985,5 hPa 0,0 l/m 7,6 km/h (2 Bft) 0 min 14,0 km/h (3 Bft)
28.02.2010 04:32 14,0 C 6,8 C 0,0 UV-I 0,0 C 53 % 85 % 0 % 984,5 hPa 0,0 l/m 7,6 km/h (2 Bft) 0 min 6,5 km/h (2 Bft)
28.02.2010 04:34 14,0 C 6,8 C 0,0 UV-I 0,0 C 53 % 85 % 0 % 984,5 hPa 0,0 l/m 7,6 km/h (2 Bft) 0 min 6,0 km/h (2 Bft)
28.02.2010 04:36 14,0 C 6,8 C 0,0 UV-I 0,0 C 53 % 85 % 0 % 984,5 hPa 0,0 l/m 6,8 km/h (2 Bft) 0 min 8,4 km/h (2 Bft)
28.02.2010 04:38 14,0 C 6,8 C 0,0 UV-I 0,0 C 53 % 85 % 0 % 984,5 hPa 0,0 l/m 7,2 km/h (2 Bft) 0 min 6,3 km/h (2 Bft)
28.02.2010 04:40 14,0 C 6,8 C 0,0 UV-I 0,0 C 53 % 85 % 0 % 984,5 hPa 0,0 l/m 8,4 km/h (2 Bft) 0 min 7,2 km/h (2 Bft)
28.02.2010 04:42 14,0 C 6,8 C 0,0 UV-I 0,0 C 53 % 85 % 0 % 984,5 hPa 0,0 l/m 8,4 km/h (2 Bft) 0 min 9,4 km/h (2 Bft)
28.02.2010 04:44 14,0 C 6,8 C 0,0 UV-I 0,0 C 53 % 85 % 0 % 984,5 hPa 0,0 l/m 9,2 km/h (2 Bft) 0 min 10,8 km/h (2 Bft)
28.02.2010 04:46 14,0 C 6,8 C 0,0 UV-I 0,0 C 53 % 85 % 0 % 984,5 hPa 0,0 l/m 9,2 km/h (2 Bft) 0 min 5,5 km/h (1 Bft)
28.02.2010 04:48 14,0 C 6,9 C 0,0 UV-I 0,0 C 53 % 85 % 0 % 984,5 hPa 0,0 l/m 9,2 km/h (2 Bft) 0 min 3,8 km/h (1 Bft)
28.02.2010 04:50 14,0 C 6,9 C 0,0 UV-I 0,0 C 53 % 85 % 0 % 984,5 hPa 0,0 l/m 10,0 km/h (2 Bft) 0 min 10,3 km/h (2 Bft)
28.02.2010 04:52 14,0 C 6,9 C 0,0 UV-I 0,0 C 53 % 85 % 0 % 983,9 hPa 0,0 l/m 10,4 km/h (2 Bft) 0 min 20,2 km/h (4 Bft)
28.02.2010 04:54 14,0 C 6,9 C 0,0 UV-I 0,0 C 53 % 85 % 0 % 983,9 hPa 0,0 l/m 9,6 km/h (2 Bft) 0 min 3,1 km/h (1 Bft)
28.02.2010 04:56 14,0 C 6,9 C 0,0 UV-I 0,0 C 53 % 85 % 0 % 983,9 hPa 0,0 l/m 8,8 km/h (2 Bft) 0 min 7,7 km/h (2 Bft)
28.02.2010 04:58 14,0 C 6,9 C 0,0 UV-I 0,0 C 53 % 85 % 0 % 983,9 hPa 0,0 l/m 9,6 km/h (2 Bft) 0 min 10,6 km/h (2 Bft)
28.02.2010 05:00 13,8 C 6,9 C 0,0 UV-I 0,0 C 53 % 85 % 0 % 983,9 hPa 0,0 l/m 10,0 km/h (2 Bft) 0 min 11,8 km/h (2 Bft)
28.02.2010 05:02 14,0 C 6,9 C 0,0 UV-I 0,0 C 53 % 85 % 0 % 983,9 hPa 0,0 l/m 9,6 km/h (2 Bft) 0 min 17,3 km/h (3 Bft)
28.02.2010 05:04 14,0 C 6,8 C 0,0 UV-I 0,0 C 53 % 85 % 0 % 983,9 hPa 0,0 l/m 9,6 km/h (2 Bft) 0 min 11,8 km/h (2 Bft)
28.02.2010 05:06 14,0 C 6,8 C 0,0 UV-I 0,0 C 53 % 85 % 0 % 983,9 hPa 0,0 l/m 9,2 km/h (2 Bft) 0 min 4,3 km/h (1 Bft)
28.02.2010 05:08 14,0 C 6,8 C 0,0 UV-I 0,0 C 53 % 85 % 0 % 983,9 hPa 0,0 l/m 9,6 km/h (2 Bft) 0 min 12,8 km/h (3 Bft)
28.02.2010 05:10 14,0 C 6,8 C 0,0 UV-I 0,0 C 53 % 85 % 0 % 983,9 hPa 0,0 l/m 9,6 km/h (2 Bft) 0 min 5,5 km/h (1 Bft)
28.02.2010 05:12 13,8 C 6,8 C 0,0 UV-I 0,0 C 53 % 85 % 0 % 983,4 hPa 0,0 l/m 9,6 km/h (2 Bft) 0 min 8,4 km/h (2 Bft)
28.02.2010 05:14 14,0 C 6,8 C 0,0 UV-I 0,0 C 53 % 85 % 0 % 983,4 hPa 0,0 l/m 9,2 km/h (2 Bft) 0 min 7,0 km/h (2 Bft)
28.02.2010 05:16 14,0 C 6,8 C 0,0 UV-I 0,0 C 53 % 86 % 0 % 983,4 hPa 0,0 l/m 9,6 km/h (2 Bft) 0 min 5,5 km/h (1 Bft)
28.02.2010 05:18 14,0 C 6,8 C 0,0 UV-I 0,0 C 53 % 85 % 0 % 983,4 hPa 0,0 l/m 9,6 km/h (2 Bft) 0 min 6,3 km/h (2 Bft)
28.02.2010 05:20 14,0 C 6,8 C 0,0 UV-I 0,0 C 53 % 86 % 0 % 983,4 hPa 0,0 l/m 8,4 km/h (2 Bft) 0 min 8,2 km/h (2 Bft)
28.02.2010 05:22 14,0 C 6,8 C 0,0 UV-I 0,0 C 53 % 86 % 0 % 983,4 hPa 0,0 l/m 8,4 km/h (2 Bft) 0 min 9,9 km/h (2 Bft)
28.02.2010 05:24 13,8 C 6,7 C 0,0 UV-I 0,0 C 53 % 86 % 0 % 983,4 hPa 0,0 l/m 8,4 km/h (2 Bft) 0 min 4,1 km/h (1 Bft)
28.02.2010 05:26 13,8 C 6,8 C 0,0 UV-I 0,0 C 53 % 86 % 0 % 983,4 hPa 0,0 l/m 9,2 km/h (2 Bft) 0 min 10,6 km/h (2 Bft)
28.02.2010 05:28 13,8 C 6,8 C 0,0 UV-I 0,0 C 53 % 86 % 0 % 983,4 hPa 0,0 l/m 8,8 km/h (2 Bft) 0 min 6,0 km/h (2 Bft)
28.02.2010 05:30 13,8 C 6,8 C 0,0 UV-I 0,0 C 53 % 86 % 0 % 983,4 hPa 0,0 l/m 9,2 km/h (2 Bft) 0 min 7,0 km/h (2 Bft)
28.02.2010 05:32 13,8 C 6,8 C 0,0 UV-I 0,0 C 54 % 86 % 0 % 982,8 hPa 0,0 l/m 10,4 km/h (2 Bft) 0 min 10,1 km/h (2 Bft)
28.02.2010 05:34 13,8 C 6,8 C 0,0 UV-I 0,0 C 54 % 86 % 0 % 982,8 hPa 0,0 l/m 8,8 km/h (2 Bft) 0 min 5,5 km/h (1 Bft)
28.02.2010 05:36 13,8 C 6,7 C 0,0 UV-I 0,0 C 54 % 86 % 0 % 982,8 hPa 0,0 l/m 9,2 km/h (2 Bft) 0 min 5,8 km/h (2 Bft)
28.02.2010 05:38 13,8 C 6,8 C 0,0 UV-I 0,0 C 54 % 86 % 0 % 982,8 hPa 0,0 l/m 10,0 km/h (2 Bft) 0 min 14,0 km/h (3 Bft)
28.02.2010 05:42 13,8 C 6,8 C 0,0 UV-I 0,0 C 54 % 86 % 0 % 982,8 hPa 0,0 l/m 10,0 km/h (2 Bft) 0 min 12,3 km/h (3 Bft)
28.02.2010 05:44 13,8 C 6,8 C 0,0 UV-I 0,0 C 54 % 86 % 0 % 982,8 hPa 0,0 l/m 10,0 km/h (2 Bft) 0 min 5,1 km/h (1 Bft)
28.02.2010 05:46 13,8 C 6,8 C 0,0 UV-I 0,0 C 54 % 86 % 0 % 982,8 hPa 0,0 l/m 11,2 km/h (2 Bft) 0 min 15,6 km/h (3 Bft)
28.02.2010 05:48 13,8 C 6,8 C 0,0 UV-I 0,0 C 54 % 86 % 0 % 982,8 hPa 0,0 l/m 11,2 km/h (2 Bft) 0 min 7,2 km/h (2 Bft)
28.02.2010 05:50 13,8 C 6,8 C 0,0 UV-I 0,0 C 54 % 86 % 0 % 982,8 hPa 0,0 l/m 10,0 km/h (2 Bft) 0 min 8,7 km/h (2 Bft)
28.02.2010 05:52 13,9 C 6,8 C 0,0 UV-I 0,0 C 54 % 86 % 0 % 982,1 hPa 0,0 l/m 11,6 km/h (2 Bft) 0 min 24,1 km/h (4 Bft)
28.02.2010 05:54 13,8 C 6,8 C 0,0 UV-I 0,0 C 54 % 87 % 0 % 982,1 hPa 0,0 l/m 11,2 km/h (2 Bft) 0 min 6,5 km/h (2 Bft)
28.02.2010 05:56 13,8 C 6,8 C 0,0 UV-I 0,0 C 54 % 87 % 0 % 982,1 hPa 0,0 l/m 10,8 km/h (2 Bft) 0 min 7,5 km/h (2 Bft)
28.02.2010 05:58 13,8 C 6,8 C 0,0 UV-I 0,0 C 54 % 87 % 0 % 982,1 hPa 0,0 l/m 10,4 km/h (2 Bft) 0 min 8,2 km/h (2 Bft)
28.02.2010 06:00 13,8 C 6,8 C 0,0 UV-I 0,0 C 54 % 87 % 0 % 982,1 hPa 0,0 l/m 9,2 km/h (2 Bft) 0 min 3,4 km/h (1 Bft)
28.02.2010 06:02 13,9 C 6,8 C 0,0 UV-I 0,0 C 54 % 87 % 0 % 982,1 hPa 0,0 l/m 8,4 km/h (2 Bft) 0 min 5,1 km/h (1 Bft)
28.02.2010 06:04 13,8 C 6,8 C 0,0 UV-I 0,0 C 54 % 87 % 0 % 982,1 hPa 0,0 l/m 8,4 km/h (2 Bft) 0 min 5,1 km/h (1 Bft)
28.02.2010 06:06 13,8 C 6,8 C 0,0 UV-I 0,0 C 54 % 87 % 0 % 982,1 hPa 0,0 l/m 8,0 km/h (2 Bft) 0 min 7,7 km/h (2 Bft)
28.02.2010 06:08 13,8 C 6,7 C 0,0 UV-I 0,0 C 54 % 88 % 0 % 982,1 hPa 0,1 l/m 8,8 km/h (2 Bft) 0 min 6,0 km/h (2 Bft)
28.02.2010 06:10 13,8 C 6,7 C 0,0 UV-I 0,0 C 54 % 88 % 0 % 982,1 hPa 0,0 l/m 10,0 km/h (2 Bft) 0 min 7,7 km/h (2 Bft)
28.02.2010 06:12 13,8 C 6,7 C 0,0 UV-I 0,0 C 54 % 88 % 0 % 982,3 hPa 0,0 l/m 10,8 km/h (2 Bft) 0 min 7,0 km/h (2 Bft)
28.02.2010 06:14 13,9 C 6,7 C 0,0 UV-I 0,0 C 54 % 88 % 0 % 982,3 hPa 0,1 l/m 10,4 km/h (2 Bft) 0 min 7,2 km/h (2 Bft)
28.02.2010 06:16 13,8 C 6,7 C 0,0 UV-I 0,0 C 54 % 88 % 0 % 982,3 hPa 0,0 l/m 10,0 km/h (2 Bft) 0 min 6,0 km/h (2 Bft)
28.02.2010 06:18 13,8 C 6,7 C 0,0 UV-I 0,0 C 54 % 88 % 0 % 982,3 hPa 0,0 l/m 10,8 km/h (2 Bft) 0 min 9,1 km/h (2 Bft)
28.02.2010 06:20 13,8 C 6,6 C 0,0 UV-I 0,0 C 54 % 88 % 0 % 982,3 hPa 0,0 l/m 11,2 km/h (2 Bft) 0 min 9,4 km/h (2 Bft)
28.02.2010 06:22 13,8 C 6,6 C 0,0 UV-I 0,0 C 54 % 88 % 0 % 982,3 hPa 0,0 l/m 10,0 km/h (2 Bft) 0 min 7,2 km/h (2 Bft)
28.02.2010 06:24 13,8 C 6,7 C 0,0 UV-I 0,0 C 54 % 88 % 0 % 982,3 hPa 0,1 l/m 9,6 km/h (2 Bft) 0 min 4,1 km/h (1 Bft)
28.02.2010 06:26 13,9 C 6,7 C 0,0 UV-I 0,0 C 54 % 88 % 0 % 982,3 hPa 0,1 l/m 9,2 km/h (2 Bft) 0 min 6,5 km/h (2 Bft)
28.02.2010 06:28 13,9 C 6,7 C 0,0 UV-I 0,0 C 55 % 89 % 0 % 982,3 hPa 0,0 l/m 8,8 km/h (2 Bft) 0 min 4,6 km/h (1 Bft)
28.02.2010 06:30 13,8 C 6,6 C 0,0 UV-I 0,0 C 55 % 89 % 0 % 982,3 hPa 0,2 l/m 8,8 km/h (2 Bft) 0 min 3,6 km/h (1 Bft)
28.02.2010 06:32 13,9 C 6,6 C 0,0 UV-I 0,0 C 55 % 89 % 0 % 981,5 hPa 0,2 l/m 7,6 km/h (2 Bft) 0 min 8,2 km/h (2 Bft)
28.02.2010 06:34 13,8 C 6,6 C 0,0 UV-I 0,0 C 55 % 89 % 0 % 981,5 hPa 0,0 l/m 7,6 km/h (2 Bft) 0 min 3,6 km/h (1 Bft)
28.02.2010 06:36 13,9 C 6,6 C 0,0 UV-I 0,0 C 55 % 89 % 0 % 981,5 hPa 0,2 l/m 8,0 km/h (2 Bft) 0 min 4,3 km/h (1 Bft)
28.02.2010 06:38 13,9 C 6,5 C 0,0 UV-I 0,0 C 55 % 89 % 0 % 981,5 hPa 0,1 l/m 7,6 km/h (2 Bft) 0 min 7,9 km/h (2 Bft)
28.02.2010 06:40 13,9 C 6,5 C 0,0 UV-I 0,0 C 55 % 90 % 0 % 981,5 hPa 0,0 l/m 6,8 km/h (2 Bft) 0 min 7,9 km/h (2 Bft)
28.02.2010 06:42 13,9 C 6,5 C 0,0 UV-I 0,0 C 55 % 90 % 0 % 981,5 hPa 0,1 l/m 7,6 km/h (2 Bft) 0 min 7,5 km/h (2 Bft)
28.02.2010 06:44 13,9 C 6,5 C 0,0 UV-I 0,0 C 55 % 90 % 0 % 981,5 hPa 0,0 l/m 7,2 km/h (2 Bft) 0 min 10,3 km/h (2 Bft)
28.02.2010 06:46 13,8 C 6,5 C 0,0 UV-I 0,0 C 55 % 90 % 0 % 981,5 hPa 0,0 l/m 8,0 km/h (2 Bft) 0 min 17,1 km/h (3 Bft)
28.02.2010 06:48 13,9 C 6,5 C 0,0 UV-I 0,0 C 55 % 90 % 0 % 981,5 hPa 0,1 l/m 8,8 km/h (2 Bft) 0 min 8,4 km/h (2 Bft)
28.02.2010 06:50 13,9 C 6,5 C 0,0 UV-I 0,0 C 55 % 90 % 0 % 981,5 hPa 0,0 l/m 9,6 km/h (2 Bft) 0 min 9,6 km/h (2 Bft)
28.02.2010 06:54 13,9 C 6,5 C 0,0 UV-I 0,0 C 55 % 90 % 0 % 980,6 hPa 0,0 l/m 9,6 km/h (2 Bft) 0 min 11,5 km/h (2 Bft)
28.02.2010 06:56 13,9 C 6,5 C 0,0 UV-I 0,0 C 55 % 90 % 0 % 980,6 hPa 0,0 l/m 10,0 km/h (2 Bft) 0 min 5,1 km/h (1 Bft)
28.02.2010 06:58 13,9 C 6,5 C 0,0 UV-I 0,0 C 55 % 90 % 0 % 980,6 hPa 0,0 l/m 10,0 km/h (2 Bft) 0 min 5,5 km/h (1 Bft)
28.02.2010 07:00 13,9 C 6,5 C 0,0 UV-I 0,0 C 55 % 90 % 0 % 980,6 hPa 0,0 l/m 10,0 km/h (2 Bft) 0 min 10,3 km/h (2 Bft)
28.02.2010 07:02 13,9 C 6,5 C 0,0 UV-I 0,0 C 55 % 91 % 0 % 980,6 hPa 0,0 l/m 10,0 km/h (2 Bft) 0 min 7,0 km/h (2 Bft)
28.02.2010 07:04 13,9 C 6,5 C 0,0 UV-I 0,0 C 55 % 91 % 0 % 980,6 hPa 0,0 l/m 10,4 km/h (2 Bft) 0 min 6,5 km/h (2 Bft)
28.02.2010 07:06 13,9 C 6,5 C 0,0 UV-I 0,0 C 55 % 91 % 0 % 980,6 hPa 0,0 l/m 9,6 km/h (2 Bft) 0 min 7,9 km/h (2 Bft)
28.02.2010 07:08 13,9 C 6,5 C 0,0 UV-I 0,0 C 55 % 91 % 0 % 980,6 hPa 0,0 l/m 8,8 km/h (2 Bft) 0 min 6,5 km/h (2 Bft)
28.02.2010 07:10 13,9 C 6,5 C 0,0 UV-I 0,0 C 55 % 91 % 0 % 980,6 hPa 0,1 l/m 9,2 km/h (2 Bft) 0 min 5,8 km/h (2 Bft)
28.02.2010 07:12 13,9 C 6,5 C 0,0 UV-I 0,0 C 55 % 91 % 0 % 980,3 hPa 0,0 l/m 8,4 km/h (2 Bft) 0 min 5,1 km/h (1 Bft)
28.02.2010 07:14 13,9 C 6,5 C 0,0 UV-I 0,0 C 55 % 91 % 0 % 980,3 hPa 0,0 l/m 8,4 km/h (2 Bft) 0 min 10,8 km/h (2 Bft)
28.02.2010 07:16 13,9 C 6,5 C 0,0 UV-I 0,0 C 55 % 91 % 0 % 980,3 hPa 0,0 l/m 8,0 km/h (2 Bft) 0 min 4,3 km/h (1 Bft)
28.02.2010 07:18 13,9 C 6,5 C 0,0 UV-I 0,0 C 55 % 91 % 0 % 980,3 hPa 0,1 l/m 8,0 km/h (2 Bft) 0 min 10,1 km/h (2 Bft)
28.02.2010 07:20 13,9 C 6,5 C 0,0 UV-I 0,0 C 55 % 91 % 0 % 980,3 hPa 0,0 l/m 8,4 km/h (2 Bft) 0 min 6,3 km/h (2 Bft)
28.02.2010 07:22 13,9 C 6,5 C 0,0 UV-I 0,0 C 55 % 91 % 0 % 980,3 hPa 0,0 l/m 7,6 km/h (2 Bft) 0 min 5,5 km/h (1 Bft)
28.02.2010 07:24 13,9 C 6,5 C 0,0 UV-I 0,0 C 55 % 92 % 0 % 980,3 hPa 0,0 l/m 8,0 km/h (2 Bft) 0 min 7,2 km/h (2 Bft)
28.02.2010 07:26 13,9 C 6,5 C 0,0 UV-I 0,0 C 55 % 92 % 0 % 980,3 hPa 0,0 l/m 7,6 km/h (2 Bft) 0 min 3,6 km/h (1 Bft)
28.02.2010 07:28 13,9 C 6,5 C 0,0 UV-I 0,0 C 55 % 92 % 0 % 980,3 hPa 0,0 l/m 8,4 km/h (2 Bft) 0 min 15,2 km/h (3 Bft)
28.02.2010 07:30 13,9 C 6,5 C 0,0 UV-I 0,0 C 55 % 92 % 0 % 980,3 hPa 0,1 l/m 8,4 km/h (2 Bft) 0 min 7,7 km/h (2 Bft)
28.02.2010 07:32 13,9 C 6,5 C 0,0 UV-I 0,0 C 55 % 92 % 0 % 979,7 hPa 0,0 l/m 9,6 km/h (2 Bft) 0 min 7,2 km/h (2 Bft)
28.02.2010 07:34 13,9 C 6,6 C 0,0 UV-I 0,0 C 55 % 92 % 0 % 979,7 hPa 0,0 l/m 8,8 km/h (2 Bft) 0 min 5,8 km/h (2 Bft)
28.02.2010 07:36 13,9 C 6,6 C 0,0 UV-I 0,0 C 56 % 92 % 0 % 979,7 hPa 0,1 l/m 9,6 km/h (2 Bft) 0 min 6,3 km/h (2 Bft)
28.02.2010 07:38 13,9 C 6,6 C 0,0 UV-I 0,0 C 55 % 92 % 0 % 979,7 hPa 0,0 l/m 9,6 km/h (2 Bft) 0 min 5,3 km/h (1 Bft)
28.02.2010 07:40 13,9 C 6,6 C 0,0 UV-I 0,0 C 56 % 92 % 0 % 979,7 hPa 0,1 l/m 9,2 km/h (2 Bft) 0 min 9,1 km/h (2 Bft)
28.02.2010 07:44 13,9 C 6,7 C 0,0 UV-I 0,0 C 56 % 92 % 0 % 979,7 hPa 0,1 l/m 9,6 km/h (2 Bft) 0 min 12,5 km/h (3 Bft)
28.02.2010 07:46 13,9 C 6,7 C 0,0 UV-I 0,0 C 56 % 92 % 0 % 979,7 hPa 0,1 l/m 9,2 km/h (2 Bft) 0 min 3,6 km/h (1 Bft)
28.02.2010 07:48 13,9 C 6,7 C 0,0 UV-I 0,0 C 56 % 92 % 0 % 979,7 hPa 0,1 l/m 9,6 km/h (2 Bft) 0 min 3,8 km/h (1 Bft)
28.02.2010 07:50 13,9 C 6,7 C 0,0 UV-I 0,0 C 56 % 92 % 0 % 979,7 hPa 0,0 l/m 8,8 km/h (2 Bft) 0 min 4,3 km/h (1 Bft)
28.02.2010 07:52 13,9 C 6,7 C 0,0 UV-I 0,0 C 56 % 92 % 0 % 979,1 hPa 0,1 l/m 9,2 km/h (2 Bft) 0 min 6,5 km/h (2 Bft)
28.02.2010 07:54 13,9 C 6,7 C 0,0 UV-I 0,0 C 56 % 92 % 0 % 979,1 hPa 0,1 l/m 8,8 km/h (2 Bft) 0 min 7,0 km/h (2 Bft)
28.02.2010 08:00 13,9 C 6,7 C 0,0 UV-I 0,0 C 56 % 92 % 0 % 979,1 hPa 0,2 l/m 10,4 km/h (2 Bft) 0 min 13,7 km/h (3 Bft)
28.02.2010 08:02 13,9 C 6,6 C 0,0 UV-I 0,0 C 56 % 92 % 0 % 979,1 hPa 0,0 l/m 10,8 km/h (2 Bft) 0 min 7,2 km/h (2 Bft)
28.02.2010 08:04 13,8 C 6,7 C 0,0 UV-I 0,0 C 56 % 92 % 0 % 979,1 hPa 0,1 l/m 10,4 km/h (2 Bft) 0 min 15,4 km/h (3 Bft)
28.02.2010 08:06 13,8 C 6,7 C 0,0 UV-I 0,0 C 56 % 93 % 0 % 979,1 hPa 0,2 l/m 10,4 km/h (2 Bft) 0 min 13,5 km/h (3 Bft)
28.02.2010 08:08 13,9 C 6,7 C 0,0 UV-I 0,0 C 56 % 93 % 0 % 979,1 hPa 0,0 l/m 10,0 km/h (2 Bft) 0 min 6,3 km/h (2 Bft)
28.02.2010 08:10 13,9 C 6,7 C 0,0 UV-I 0,0 C 56 % 93 % 0 % 979,1 hPa 0,1 l/m 10,4 km/h (2 Bft) 0 min 12,0 km/h (2 Bft)
28.02.2010 08:12 13,9 C 6,8 C 0,0 UV-I 0,0 C 57 % 93 % 0 % 978,8 hPa 0,0 l/m 10,8 km/h (2 Bft) 0 min 8,7 km/h (2 Bft)
28.02.2010 08:14 13,8 C 6,7 C 0,0 UV-I 0,0 C 57 % 93 % 0 % 978,8 hPa 0,1 l/m 10,8 km/h (2 Bft) 0 min 5,8 km/h (2 Bft)
28.02.2010 08:16 13,8 C 6,7 C 0,0 UV-I 0,0 C 57 % 93 % 0 % 978,8 hPa 0,0 l/m 10,0 km/h (2 Bft) 0 min 4,6 km/h (1 Bft)
28.02.2010 08:18 13,8 C 6,7 C 0,0 UV-I 0,0 C 57 % 93 % 0 % 978,8 hPa 0,0 l/m 10,8 km/h (2 Bft) 0 min 9,6 km/h (2 Bft)
28.02.2010 08:20 13,8 C 6,7 C 0,0 UV-I 0,0 C 57 % 93 % 0 % 978,8 hPa 0,0 l/m 9,6 km/h (2 Bft) 0 min 6,7 km/h (2 Bft)
28.02.2010 08:22 13,9 C 6,7 C 0,0 UV-I 0,0 C 57 % 93 % 0 % 978,8 hPa 0,0 l/m 9,2 km/h (2 Bft) 0 min 4,3 km/h (1 Bft)
28.02.2010 08:24 13,9 C 6,7 C 0,0 UV-I 0,0 C 57 % 93 % 0 % 978,8 hPa 0,0 l/m 8,4 km/h (2 Bft) 0 min 6,0 km/h (2 Bft)
28.02.2010 08:26 13,8 C 6,7 C 0,0 UV-I 0,0 C 57 % 93 % 0 % 978,8 hPa 0,0 l/m 10,4 km/h (2 Bft) 0 min 5,8 km/h (2 Bft)
28.02.2010 08:28 13,8 C 6,7 C 0,0 UV-I 0,0 C 57 % 93 % 0 % 978,8 hPa 0,1 l/m 10,8 km/h (2 Bft) 0 min 12,0 km/h (2 Bft)
28.02.2010 08:30 13,8 C 6,8 C 0,0 UV-I 0,0 C 57 % 93 % 0 % 978,8 hPa 0,0 l/m 10,8 km/h (2 Bft) 0 min 5,8 km/h (2 Bft)
28.02.2010 08:32 13,8 C 6,8 C 0,0 UV-I 0,0 C 57 % 93 % 0 % 978,6 hPa 0,0 l/m 11,2 km/h (2 Bft) 0 min 6,5 km/h (2 Bft)
28.02.2010 08:34 13,8 C 6,9 C 0,0 UV-I 0,0 C 57 % 93 % 0 % 978,6 hPa 0,0 l/m 11,6 km/h (2 Bft) 0 min 7,2 km/h (2 Bft)
28.02.2010 08:38 13,9 C 6,8 C 0,0 UV-I 0,0 C 57 % 93 % 0 % 978,6 hPa 0,0 l/m 10,4 km/h (2 Bft) 0 min 11,5 km/h (2 Bft)
28.02.2010 08:40 13,8 C 6,8 C 0,0 UV-I 0,0 C 57 % 93 % 0 % 978,6 hPa 0,0 l/m 10,4 km/h (2 Bft) 0 min 13,5 km/h (3 Bft)
28.02.2010 08:42 13,9 C 6,9 C 0,0 UV-I 0,0 C 57 % 93 % 0 % 978,6 hPa 0,0 l/m 10,4 km/h (2 Bft) 0 min 11,5 km/h (2 Bft)
28.02.2010 08:44 13,8 C 6,8 C 0,0 UV-I 0,0 C 57 % 93 % 0 % 978,6 hPa 0,1 l/m 10,4 km/h (2 Bft) 0 min 12,3 km/h (3 Bft)
28.02.2010 08:46 13,8 C 6,9 C 0,0 UV-I 0,0 C 57 % 93 % 0 % 978,6 hPa 0,0 l/m 10,8 km/h (2 Bft) 0 min 17,8 km/h (3 Bft)
28.02.2010 08:48 13,9 C 6,9 C 0,0 UV-I 0,0 C 57 % 93 % 0 % 978,6 hPa 0,0 l/m 11,6 km/h (2 Bft) 0 min 19,0 km/h (3 Bft)
28.02.2010 08:50 13,8 C 6,9 C 0,0 UV-I 0,0 C 57 % 93 % 0 % 978,6 hPa 0,0 l/m 11,6 km/h (2 Bft) 0 min 9,1 km/h (2 Bft)
28.02.2010 08:52 13,8 C 6,9 C 0,0 UV-I 0,0 C 57 % 93 % 0 % 978,8 hPa 0,0 l/m 11,6 km/h (2 Bft) 0 min 12,3 km/h (3 Bft)
28.02.2010 08:54 13,9 C 6,9 C 0,0 UV-I 0,0 C 57 % 93 % 0 % 978,8 hPa 0,0 l/m 12,4 km/h (3 Bft) 0 min 12,3 km/h (3 Bft)
28.02.2010 08:56 13,9 C 7,1 C 0,0 UV-I 0,0 C 57 % 94 % 0 % 978,8 hPa 0,0 l/m 12,8 km/h (3 Bft) 0 min 8,4 km/h (2 Bft)
28.02.2010 09:00 13,9 C 7,0 C 0,0 UV-I 0,0 C 58 % 94 % 0 % 978,8 hPa 0,0 l/m 14,1 km/h (3 Bft) 0 min 15,2 km/h (3 Bft)
28.02.2010 09:02 13,9 C 7,1 C 0,0 UV-I 0,0 C 58 % 94 % 0 % 978,8 hPa 0,0 l/m 14,5 km/h (3 Bft) 0 min 11,1 km/h (2 Bft)
28.02.2010 09:04 13,9 C 7,1 C 0,0 UV-I 0,0 C 58 % 94 % 0 % 978,8 hPa 0,0 l/m 13,7 km/h (3 Bft) 0 min 7,0 km/h (2 Bft)
28.02.2010 09:06 13,9 C 7,1 C 0,0 UV-I 0,0 C 58 % 94 % 0 % 978,8 hPa 0,0 l/m 14,1 km/h (3 Bft) 0 min 9,1 km/h (2 Bft)
28.02.2010 09:08 13,9 C 7,1 C 0,0 UV-I 0,0 C 58 % 94 % 0 % 978,8 hPa 0,0 l/m 14,5 km/h (3 Bft) 0 min 6,5 km/h (2 Bft)
28.02.2010 09:10 13,9 C 7,3 C 0,0 UV-I 0,0 C 58 % 94 % 0 % 978,8 hPa 0,0 l/m 14,1 km/h (3 Bft) 0 min 11,5 km/h (2 Bft)
28.02.2010 09:12 13,9 C 7,3 C 0,0 UV-I 0,0 C 58 % 94 % 0 % 978,8 hPa 0,0 l/m 12,8 km/h (3 Bft) 0 min 11,5 km/h (2 Bft)
28.02.2010 09:14 13,9 C 7,2 C 0,0 UV-I 0,0 C 58 % 94 % 0 % 978,8 hPa 0,0 l/m 12,8 km/h (3 Bft) 0 min 9,9 km/h (2 Bft)
28.02.2010 09:16 13,9 C 7,3 C 0,0 UV-I 0,0 C 58 % 94 % 0 % 978,8 hPa 0,0 l/m 12,8 km/h (3 Bft) 0 min 18,8 km/h (3 Bft)
28.02.2010 09:18 13,9 C 7,3 C 0,0 UV-I 0,0 C 58 % 94 % 0 % 978,8 hPa 0,0 l/m 11,2 km/h (2 Bft) 0 min 9,6 km/h (2 Bft)
28.02.2010 09:20 13,9 C 7,3 C 0,0 UV-I 0,0 C 58 % 94 % 0 % 978,8 hPa 0,0 l/m 11,2 km/h (2 Bft) 0 min 7,9 km/h (2 Bft)
28.02.2010 09:22 13,9 C 7,4 C 0,0 UV-I 0,0 C 58 % 94 % 0 % 978,8 hPa 0,0 l/m 11,2 km/h (2 Bft) 0 min 7,2 km/h (2 Bft)
28.02.2010 09:24 13,9 C 7,5 C 0,1 UV-I 0,0 C 58 % 94 % 0 % 978,8 hPa 0,0 l/m 10,4 km/h (2 Bft) 0 min 7,9 km/h (2 Bft)
28.02.2010 09:28 13,9 C 7,5 C 0,0 UV-I 0,0 C 58 % 94 % 0 % 978,8 hPa 0,0 l/m 10,8 km/h (2 Bft) 0 min 14,0 km/h (3 Bft)
28.02.2010 09:30 13,9 C 7,5 C 0,0 UV-I 0,0 C 58 % 94 % 0 % 978,8 hPa 0,0 l/m 11,2 km/h (2 Bft) 0 min 12,5 km/h (3 Bft)
28.02.2010 09:32 13,9 C 7,5 C 0,0 UV-I 0,0 C 58 % 94 % 0 % 978,5 hPa 0,0 l/m 11,2 km/h (2 Bft) 0 min 25,7 km/h (4 Bft)
28.02.2010 09:34 13,8 C 7,5 C 0,0 UV-I 0,0 C 58 % 94 % 0 % 978,5 hPa 0,0 l/m 11,2 km/h (2 Bft) 0 min 6,7 km/h (2 Bft)
28.02.2010 09:36 13,8 C 7,6 C 0,0 UV-I 0,0 C 58 % 94 % 0 % 978,5 hPa 0,0 l/m 11,6 km/h (2 Bft) 0 min 7,7 km/h (2 Bft)
28.02.2010 09:38 13,8 C 7,6 C 0,0 UV-I 0,0 C 58 % 94 % 0 % 978,5 hPa 0,0 l/m 9,6 km/h (2 Bft) 0 min 5,3 km/h (1 Bft)
28.02.2010 09:40 13,8 C 7,5 C 0,0 UV-I 0,2 C 58 % 94 % 6 % 978,5 hPa 0,0 l/m 8,4 km/h (2 Bft) 0 min 4,3 km/h (1 Bft)
28.02.2010 09:42 13,8 C 7,7 C 0,0 UV-I 0,0 C 58 % 94 % 0 % 978,5 hPa 0,0 l/m 7,6 km/h (2 Bft) 0 min 2,4 km/h (1 Bft)
28.02.2010 09:46 14,0 C 7,6 C 0,0 UV-I 0,1 C 58 % 94 % 3 % 978,5 hPa 0,0 l/m 6,4 km/h (2 Bft) 0 min 7,9 km/h (2 Bft)
28.02.2010 09:48 13,8 C 7,7 C 0,0 UV-I 0,1 C 58 % 94 % 3 % 978,5 hPa 0,0 l/m 6,0 km/h (2 Bft) 0 min 6,3 km/h (2 Bft)
28.02.2010 09:50 14,0 C 7,6 C 0,0 UV-I 0,2 C 59 % 94 % 6 % 978,5 hPa 0,0 l/m 6,4 km/h (2 Bft) 0 min 3,8 km/h (1 Bft)
28.02.2010 09:52 14,0 C 7,7 C 0,0 UV-I 0,1 C 59 % 94 % 3 % 977,9 hPa 0,0 l/m 7,2 km/h (2 Bft) 0 min 6,0 km/h (2 Bft)
28.02.2010 09:54 14,0 C 7,7 C 0,0 UV-I 0,1 C 59 % 94 % 3 % 977,9 hPa 0,0 l/m 7,6 km/h (2 Bft) 0 min 3,8 km/h (1 Bft)
28.02.2010 09:56 14,0 C 7,7 C 0,0 UV-I 0,2 C 59 % 94 % 6 % 977,9 hPa 0,0 l/m 6,8 km/h (2 Bft) 0 min 3,6 km/h (1 Bft)
28.02.2010 09:58 14,0 C 7,8 C 0,0 UV-I 0,1 C 59 % 94 % 3 % 977,9 hPa 0,0 l/m 6,4 km/h (2 Bft) 0 min 0,0 km/h (0 Bft)
28.02.2010 10:00 14,0 C 7,9 C 0,0 UV-I 0,1 C 59 % 94 % 3 % 977,9 hPa 0,0 l/m 4,8 km/h (1 Bft) 0 min 3,6 km/h (1 Bft)
28.02.2010 10:02 14,0 C 7,9 C 0,0 UV-I 0,2 C 59 % 93 % 6 % 977,9 hPa 0,0 l/m 4,4 km/h (1 Bft) 0 min 7,5 km/h (2 Bft)
28.02.2010 10:04 14,0 C 7,9 C 0,0 UV-I 0,2 C 59 % 93 % 6 % 977,9 hPa 0,0 l/m 4,0 km/h (1 Bft) 0 min 7,2 km/h (2 Bft)
28.02.2010 10:06 14,0 C 7,9 C 0,0 UV-I 0,3 C 59 % 94 % 9 % 977,9 hPa 0,0 l/m 3,6 km/h (1 Bft) 0 min 2,6 km/h (1 Bft)
28.02.2010 10:08 14,0 C 7,9 C 0,5 UV-I 0,5 C 59 % 94 % 14 % 977,9 hPa 0,0 l/m 3,6 km/h (1 Bft) 0 min 6,5 km/h (2 Bft)
28.02.2010 10:10 14,0 C 7,9 C 0,5 UV-I 0,6 C 59 % 94 % 17 % 977,9 hPa 0,0 l/m 4,4 km/h (1 Bft) 0 min 6,3 km/h (2 Bft)
28.02.2010 10:12 14,0 C 8,1 C 0,5 UV-I 0,5 C 59 % 94 % 14 % 977,6 hPa 0,0 l/m 5,6 km/h (1 Bft) 0 min 5,3 km/h (1 Bft)
28.02.2010 10:14 14,0 C 8,1 C 0,5 UV-I 0,6 C 59 % 94 % 17 % 977,6 hPa 0,0 l/m 5,6 km/h (1 Bft) 0 min 8,2 km/h (2 Bft)
28.02.2010 10:16 14,0 C 8,1 C 0,5 UV-I 0,8 C 59 % 94 % 23 % 977,6 hPa 0,0 l/m 5,6 km/h (1 Bft) 0 min 3,8 km/h (1 Bft)
28.02.2010 10:18 13,9 C 8,2 C 0,2 UV-I 0,7 C 59 % 94 % 20 % 977,6 hPa 0,0 l/m 6,0 km/h (2 Bft) 0 min 0,0 km/h (0 Bft)
28.02.2010 10:22 13,9 C 8,3 C 0,2 UV-I 0,9 C 59 % 94 % 26 % 977,6 hPa 0,0 l/m 5,6 km/h (1 Bft) 0 min 7,5 km/h (2 Bft)
28.02.2010 10:26 13,9 C 8,4 C 0,3 UV-I 1,0 C 59 % 94 % 29 % 977,6 hPa 0,0 l/m 5,6 km/h (1 Bft) 0 min 4,3 km/h (1 Bft)
28.02.2010 10:28 13,9 C 8,5 C 0,9 UV-I 1,2 C 59 % 94 % 34 % 977,6 hPa 0,0 l/m 6,0 km/h (2 Bft) 0 min 6,3 km/h (2 Bft)
28.02.2010 10:30 13,9 C 8,6 C 0,9 UV-I 1,7 C 59 % 94 % 49 % 977,6 hPa 0,0 l/m 6,8 km/h (2 Bft) 0 min 4,3 km/h (1 Bft)
28.02.2010 10:32 14,1 C 8,6 C 0,9 UV-I 2,0 C 59 % 94 % 57 % 977,4 hPa 0,0 l/m 6,8 km/h (2 Bft) 0 min 0,0 km/h (0 Bft)
28.02.2010 10:34 14,1 C 8,7 C 0,7 UV-I 1,9 C 59 % 94 % 54 % 977,4 hPa 0,0 l/m 6,0 km/h (2 Bft) 0 min 4,3 km/h (1 Bft)
28.02.2010 10:36 14,1 C 8,8 C 0,7 UV-I 1,7 C 59 % 94 % 49 % 977,4 hPa 0,0 l/m 6,4 km/h (2 Bft) 0 min 3,4 km/h (1 Bft)
28.02.2010 10:38 14,1 C 8,8 C 0,0 UV-I 1,6 C 59 % 94 % 46 % 977,4 hPa 0,0 l/m 6,8 km/h (2 Bft) 0 min 3,6 km/h (1 Bft)
28.02.2010 10:40 14,1 C 8,8 C 0,0 UV-I 1,4 C 59 % 94 % 40 % 977,4 hPa 0,0 l/m 7,2 km/h (2 Bft) 0 min 4,8 km/h (1 Bft)
28.02.2010 10:42 14,1 C 8,8 C 0,0 UV-I 1,4 C 60 % 94 % 40 % 977,4 hPa 0,0 l/m 8,4 km/h (2 Bft) 0 min 9,6 km/h (2 Bft)
28.02.2010 10:44 14,1 C 8,9 C 0,1 UV-I 1,3 C 59 % 94 % 37 % 977,4 hPa 0,0 l/m 10,0 km/h (2 Bft) 0 min 11,1 km/h (2 Bft)
28.02.2010 10:46 14,1 C 9,0 C 0,1 UV-I 1,0 C 60 % 94 % 29 % 977,4 hPa 0,0 l/m 11,2 km/h (2 Bft) 0 min 6,7 km/h (2 Bft)
28.02.2010 10:48 14,1 C 9,1 C 0,0 UV-I 0,7 C 60 % 93 % 20 % 977,4 hPa 0,0 l/m 12,0 km/h (2 Bft) 0 min 13,7 km/h (3 Bft)
28.02.2010 10:50 14,1 C 9,1 C 0,0 UV-I 0,5 C 60 % 93 % 14 % 977,4 hPa 0,0 l/m 14,1 km/h (3 Bft) 0 min 13,2 km/h (3 Bft)
28.02.2010 10:52 14,2 C 9,1 C 0,0 UV-I 0,3 C 60 % 93 % 9 % 977,2 hPa 0,0 l/m 14,9 km/h (3 Bft) 0 min 10,8 km/h (2 Bft)
28.02.2010 10:54 14,2 C 9,1 C 0,0 UV-I 0,4 C 60 % 93 % 11 % 977,2 hPa 0,0 l/m 14,5 km/h (3 Bft) 0 min 9,1 km/h (2 Bft)
28.02.2010 10:56 14,2 C 9,2 C 0,0 UV-I 0,2 C 60 % 93 % 6 % 977,2 hPa 0,0 l/m 14,9 km/h (3 Bft) 0 min 12,5 km/h (3 Bft)
28.02.2010 10:58 14,2 C 9,2 C 0,0 UV-I 0,4 C 60 % 93 % 11 % 977,2 hPa 0,0 l/m 13,7 km/h (3 Bft) 0 min 7,9 km/h (2 Bft)
28.02.2010 11:00 14,1 C 9,2 C 0,0 UV-I 0,5 C 60 % 93 % 14 % 977,2 hPa 0,0 l/m 14,1 km/h (3 Bft) 0 min 12,0 km/h (2 Bft)
28.02.2010 11:02 14,2 C 9,3 C 0,0 UV-I 0,6 C 60 % 92 % 17 % 977,2 hPa 0,0 l/m 13,3 km/h (3 Bft) 0 min 16,1 km/h (3 Bft)
28.02.2010 11:04 14,2 C 9,4 C 0,0 UV-I 0,5 C 60 % 92 % 14 % 977,2 hPa 0,0 l/m 13,3 km/h (3 Bft) 0 min 14,9 km/h (3 Bft)
28.02.2010 11:06 14,2 C 9,6 C 0,0 UV-I 0,6 C 60 % 92 % 17 % 977,2 hPa 0,0 l/m 12,8 km/h (3 Bft) 0 min 7,0 km/h (2 Bft)
28.02.2010 11:08 14,2 C 9,6 C 0,0 UV-I 0,6 C 60 % 91 % 17 % 977,2 hPa 0,0 l/m 15,7 km/h (3 Bft) 0 min 43,5 km/h (6 Bft)
28.02.2010 11:10 14,2 C 10,0 C 0,0 UV-I 0,3 C 59 % 89 % 9 % 977,2 hPa 0,0 l/m 16,9 km/h (3 Bft) 0 min 12,8 km/h (3 Bft)
28.02.2010 11:12 14,2 C 10,1 C 0,0 UV-I 0,3 C 59 % 88 % 9 % 977,1 hPa 0,0 l/m 18,1 km/h (3 Bft) 0 min 45,2 km/h (6 Bft)
28.02.2010 11:14 14,2 C 10,3 C 0,0 UV-I 0,3 C 59 % 86 % 9 % 977,1 hPa 0,0 l/m 18,1 km/h (3 Bft) 0 min 9,6 km/h (2 Bft)
28.02.2010 11:18 14,2 C 10,6 C 0,0 UV-I 0,3 C 59 % 84 % 9 % 977,1 hPa 0,0 l/m 20,1 km/h (4 Bft) 0 min 16,6 km/h (3 Bft)
28.02.2010 11:20 14,1 C 10,7 C 0,0 UV-I 0,5 C 59 % 84 % 14 % 977,1 hPa 0,0 l/m 17,7 km/h (3 Bft) 0 min 46,0 km/h (6 Bft)
28.02.2010 11:22 14,1 C 10,6 C 0,0 UV-I 0,8 C 59 % 84 % 23 % 977,1 hPa 0,0 l/m 15,3 km/h (3 Bft) 0 min 15,2 km/h (3 Bft)
28.02.2010 11:24 14,1 C 10,6 C 0,0 UV-I 0,9 C 58 % 83 % 26 % 977,1 hPa 0,0 l/m 14,9 km/h (3 Bft) 0 min 12,5 km/h (3 Bft)
28.02.2010 11:26 14,2 C 10,7 C 0,0 UV-I 0,9 C 58 % 83 % 26 % 977,1 hPa 0,0 l/m 14,5 km/h (3 Bft) 0 min 12,0 km/h (2 Bft)
28.02.2010 11:28 14,1 C 10,7 C 0,0 UV-I 1,1 C 59 % 83 % 31 % 977,1 hPa 0,0 l/m 13,3 km/h (3 Bft) 0 min 7,2 km/h (2 Bft)
28.02.2010 11:32 14,1 C 10,8 C 0,0 UV-I 0,9 C 58 % 81 % 26 % 977,2 hPa 0,0 l/m 14,5 km/h (3 Bft) 0 min 26,2 km/h (4 Bft)
28.02.2010 11:34 14,2 C 10,9 C 0,0 UV-I 0,7 C 58 % 81 % 20 % 977,2 hPa 0,0 l/m 14,9 km/h (3 Bft) 0 min 19,2 km/h (3 Bft)
28.02.2010 11:36 14,1 C 11,1 C 0,0 UV-I 0,5 C 58 % 80 % 14 % 977,2 hPa 0,0 l/m 14,9 km/h (3 Bft) 0 min 14,2 km/h (3 Bft)
28.02.2010 11:38 14,1 C 11,0 C 0,0 UV-I 0,8 C 58 % 79 % 23 % 977,2 hPa 0,0 l/m 14,5 km/h (3 Bft) 0 min 7,2 km/h (2 Bft)
28.02.2010 11:40 14,1 C 11,1 C 0,0 UV-I 0,7 C 58 % 79 % 20 % 977,2 hPa 0,0 l/m 15,3 km/h (3 Bft) 0 min 15,2 km/h (3 Bft)
28.02.2010 11:42 14,3 C 11,2 C 0,0 UV-I 0,6 C 58 % 78 % 17 % 977,2 hPa 0,0 l/m 15,3 km/h (3 Bft) 0 min 7,0 km/h (2 Bft)
28.02.2010 11:44 14,3 C 11,2 C 0,0 UV-I 0,6 C 58 % 77 % 17 % 977,2 hPa 0,0 l/m 15,3 km/h (3 Bft) 0 min 12,8 km/h (3 Bft)
28.02.2010 11:48 14,2 C 11,5 C 0,0 UV-I 0,3 C 57 % 74 % 9 % 977,2 hPa 0,0 l/m 15,7 km/h (3 Bft) 0 min 14,4 km/h (3 Bft)
28.02.2010 11:50 14,4 C 11,4 C 0,0 UV-I 0,4 C 57 % 73 % 11 % 977,2 hPa 0,0 l/m 16,1 km/h (3 Bft) 0 min 22,1 km/h (4 Bft)
28.02.2010 11:52 14,4 C 11,6 C 0,0 UV-I 0,0 C 57 % 71 % 0 % 977,0 hPa 0,0 l/m 19,3 km/h (3 Bft) 0 min 16,6 km/h (3 Bft)
28.02.2010 11:54 14,4 C 11,6 C 0,0 UV-I 0,0 C 57 % 71 % 0 % 977,0 hPa 0,0 l/m 20,5 km/h (4 Bft) 0 min 16,8 km/h (3 Bft)
28.02.2010 11:56 14,4 C 11,6 C 0,0 UV-I 0,0 C 57 % 71 % 0 % 977,0 hPa 0,0 l/m 21,3 km/h (4 Bft) 0 min 5,1 km/h (1 Bft)
28.02.2010 12:00 14,4 C 11,7 C 0,0 UV-I 0,0 C 57 % 71 % 0 % 977,0 hPa 0,0 l/m 20,1 km/h (4 Bft) 0 min 14,9 km/h (3 Bft)
28.02.2010 12:02 14,4 C 11,7 C 0,0 UV-I 0,0 C 57 % 71 % 0 % 977,0 hPa 0,0 l/m 18,5 km/h (3 Bft) 0 min 19,7 km/h (3 Bft)
28.02.2010 12:04 14,4 C 11,7 C 0,0 UV-I 0,0 C 57 % 71 % 0 % 977,0 hPa 0,0 l/m 18,5 km/h (3 Bft) 0 min 19,7 km/h (3 Bft)
28.02.2010 12:06 14,3 C 11,7 C 0,0 UV-I 0,0 C 57 % 71 % 0 % 977,0 hPa 0,0 l/m 15,7 km/h (3 Bft) 0 min 15,9 km/h (3 Bft)
28.02.2010 12:08 14,4 C 11,7 C 0,0 UV-I 0,0 C 56 % 71 % 0 % 977,0 hPa 0,0 l/m 15,7 km/h (3 Bft) 0 min 11,5 km/h (2 Bft)
28.02.2010 12:10 14,4 C 11,7 C 0,0 UV-I 0,0 C 56 % 70 % 0 % 977,0 hPa 0,0 l/m 16,9 km/h (3 Bft) 0 min 37,8 km/h (5 Bft)
28.02.2010 12:12 14,4 C 11,8 C 0,0 UV-I 0,0 C 56 % 71 % 0 % 976,9 hPa 0,0 l/m 18,1 km/h (3 Bft) 0 min 16,4 km/h (3 Bft)
28.02.2010 12:14 14,4 C 11,7 C 0,0 UV-I 0,0 C 56 % 71 % 0 % 976,9 hPa 0,0 l/m 19,7 km/h (3 Bft) 0 min 19,5 km/h (3 Bft)
28.02.2010 12:16 14,3 C 11,7 C 0,0 UV-I 0,0 C 56 % 71 % 0 % 976,9 hPa 0,0 l/m 19,7 km/h (3 Bft) 0 min 7,9 km/h (2 Bft)
28.02.2010 12:18 14,4 C 11,7 C 0,0 UV-I 0,0 C 56 % 71 % 0 % 976,9 hPa 0,0 l/m 20,9 km/h (4 Bft) 0 min 12,8 km/h (3 Bft)
28.02.2010 12:22 14,5 C 11,7 C 0,0 UV-I 0,0 C 56 % 70 % 0 % 976,9 hPa 0,0 l/m 20,9 km/h (4 Bft) 0 min 13,7 km/h (3 Bft)
28.02.2010 12:24 14,4 C 11,8 C 0,0 UV-I 0,0 C 56 % 71 % 0 % 976,9 hPa 0,0 l/m 22,1 km/h (4 Bft) 0 min 19,7 km/h (3 Bft)
28.02.2010 12:26 14,4 C 11,7 C 0,0 UV-I 0,0 C 56 % 69 % 0 % 976,9 hPa 0,2 l/m 22,9 km/h (4 Bft) 0 min 27,9 km/h (4 Bft)
28.02.2010 12:28 14,6 C 11,7 C 0,1 UV-I 0,0 C 56 % 70 % 0 % 976,9 hPa 0,0 l/m 23,3 km/h (4 Bft) 0 min 27,2 km/h (4 Bft)
28.02.2010 12:30 14,6 C 11,7 C 0,1 UV-I 0,0 C 56 % 70 % 0 % 976,9 hPa 0,0 l/m 24,5 km/h (4 Bft) 0 min 23,1 km/h (4 Bft)
28.02.2010 12:32 14,6 C 11,6 C 0,1 UV-I 0,0 C 56 % 71 % 0 % 976,8 hPa 0,0 l/m 24,5 km/h (4 Bft) 0 min 19,7 km/h (3 Bft)
28.02.2010 12:34 14,6 C 11,5 C 0,0 UV-I 0,0 C 56 % 71 % 0 % 976,8 hPa 0,0 l/m 23,7 km/h (4 Bft) 0 min 7,2 km/h (2 Bft)
28.02.2010 12:36 14,6 C 11,5 C 0,0 UV-I 0,0 C 56 % 71 % 0 % 976,8 hPa 0,2 l/m 22,9 km/h (4 Bft) 0 min 19,2 km/h (3 Bft)
28.02.2010 12:38 14,6 C 11,3 C 0,1 UV-I 0,0 C 56 % 71 % 0 % 976,8 hPa 0,0 l/m 22,1 km/h (4 Bft) 0 min 13,5 km/h (3 Bft)
28.02.2010 12:40 14,6 C 11,3 C 0,1 UV-I 0,0 C 56 % 71 % 0 % 976,8 hPa 0,0 l/m 20,1 km/h (4 Bft) 0 min 14,9 km/h (3 Bft)
28.02.2010 12:42 14,6 C 11,3 C 0,1 UV-I 0,0 C 56 % 71 % 0 % 976,8 hPa 0,0 l/m 19,7 km/h (3 Bft) 0 min 26,5 km/h (4 Bft)
28.02.2010 12:44 14,6 C 11,3 C 0,2 UV-I 0,0 C 55 % 71 % 0 % 976,8 hPa 0,0 l/m 20,9 km/h (4 Bft) 0 min 36,8 km/h (5 Bft)
28.02.2010 12:46 14,6 C 11,3 C 0,2 UV-I 0,0 C 55 % 71 % 0 % 976,8 hPa 0,0 l/m 20,5 km/h (4 Bft) 0 min 13,0 km/h (3 Bft)
28.02.2010 12:48 14,7 C 11,2 C 0,1 UV-I 0,0 C 55 % 71 % 0 % 976,8 hPa 0,3 l/m 19,7 km/h (3 Bft) 0 min 14,0 km/h (3 Bft)
28.02.2010 12:50 14,7 C 11,3 C 0,1 UV-I 0,0 C 55 % 71 % 0 % 976,8 hPa 0,0 l/m 20,1 km/h (4 Bft) 0 min 6,3 km/h (2 Bft)
28.02.2010 12:52 14,7 C 11,2 C 0,1 UV-I 0,0 C 55 % 71 % 0 % 976,8 hPa 0,0 l/m 21,3 km/h (4 Bft) 0 min 22,9 km/h (4 Bft)
28.02.2010 12:54 14,7 C 11,2 C 0,0 UV-I 0,0 C 55 % 71 % 0 % 976,8 hPa 0,0 l/m 20,1 km/h (4 Bft) 0 min 24,3 km/h (4 Bft)
28.02.2010 12:56 14,7 C 11,2 C 0,0 UV-I 0,0 C 55 % 70 % 0 % 976,8 hPa 0,4 l/m 21,3 km/h (4 Bft) 0 min 37,5 km/h (5 Bft)
28.02.2010 12:58 14,7 C 11,2 C 0,1 UV-I 0,0 C 55 % 71 % 0 % 976,8 hPa 0,0 l/m 21,7 km/h (4 Bft) 0 min 11,5 km/h (2 Bft)
28.02.2010 13:00 14,7 C 11,2 C 0,1 UV-I 0,0 C 55 % 71 % 0 % 976,8 hPa 0,0 l/m 20,9 km/h (4 Bft) 0 min 25,0 km/h (4 Bft)
28.02.2010 13:04 14,7 C 11,0 C 0,0 UV-I 0,0 C 55 % 71 % 0 % 976,8 hPa 0,0 l/m 20,1 km/h (4 Bft) 0 min 20,0 km/h (4 Bft)
28.02.2010 13:09 14,6 C 11,1 C 0,1 UV-I 0,0 C 55 % 70 % 0 % 976,8 hPa 0,0 l/m 21,3 km/h (4 Bft) 0 min 24,1 km/h (4 Bft)
28.02.2010 13:14 14,6 C 10,9 C 0,0 UV-I 0,0 C 54 % 68 % 0 % 976,9 hPa 0,3 l/m 25,3 km/h (4 Bft) 0 min 19,0 km/h (3 Bft)
28.02.2010 13:16 14,7 C 10,9 C 0,0 UV-I 0,0 C 54 % 69 % 0 % 976,9 hPa 0,0 l/m 26,9 km/h (4 Bft) 0 min 16,8 km/h (3 Bft)
28.02.2010 13:18 14,7 C 11,0 C 0,0 UV-I 0,0 C 54 % 70 % 0 % 976,9 hPa 0,0 l/m 24,5 km/h (4 Bft) 0 min 10,3 km/h (2 Bft)
28.02.2010 13:20 14,7 C 10,9 C 0,0 UV-I 0,0 C 54 % 70 % 0 % 976,9 hPa 0,0 l/m 23,3 km/h (4 Bft) 0 min 12,0 km/h (2 Bft)
28.02.2010 13:22 14,7 C 10,8 C 0,0 UV-I 0,0 C 54 % 70 % 0 % 976,9 hPa 0,0 l/m 22,9 km/h (4 Bft) 0 min 28,1 km/h (4 Bft)
28.02.2010 13:24 14,7 C 10,9 C 0,0 UV-I 0,0 C 54 % 70 % 0 % 976,9 hPa 0,0 l/m 21,7 km/h (4 Bft) 0 min 24,5 km/h (4 Bft)
28.02.2010 13:26 14,7 C 10,8 C 0,0 UV-I 0,0 C 54 % 70 % 0 % 976,9 hPa 0,0 l/m 21,3 km/h (4 Bft) 0 min 12,3 km/h (3 Bft)
28.02.2010 13:28 14,7 C 10,8 C 0,0 UV-I 0,0 C 54 % 69 % 0 % 976,9 hPa 0,0 l/m 21,7 km/h (4 Bft) 0 min 13,7 km/h (3 Bft)
28.02.2010 13:30 14,7 C 10,8 C 0,0 UV-I 0,0 C 54 % 70 % 0 % 976,9 hPa 0,0 l/m 22,1 km/h (4 Bft) 0 min 10,6 km/h (2 Bft)
28.02.2010 13:32 14,7 C 10,7 C 0,0 UV-I 0,0 C 54 % 69 % 0 % 976,4 hPa 0,0 l/m 24,5 km/h (4 Bft) 0 min 33,0 km/h (5 Bft)
28.02.2010 13:34 14,7 C 10,7 C 0,0 UV-I 0,0 C 54 % 70 % 0 % 976,4 hPa 0,0 l/m 22,5 km/h (4 Bft) 0 min 17,6 km/h (3 Bft)
28.02.2010 13:36 14,7 C 10,7 C 0,0 UV-I 0,0 C 54 % 70 % 0 % 976,4 hPa 0,0 l/m 20,9 km/h (4 Bft) 0 min 15,4 km/h (3 Bft)
28.02.2010 13:38 14,7 C 10,7 C 0,0 UV-I 0,0 C 54 % 70 % 0 % 976,4 hPa 0,0 l/m 22,5 km/h (4 Bft) 0 min 24,8 km/h (4 Bft)
28.02.2010 13:40 14,7 C 10,7 C 0,0 UV-I 0,0 C 54 % 71 % 0 % 976,4 hPa 0,0 l/m 21,7 km/h (4 Bft) 0 min 17,8 km/h (3 Bft)
28.02.2010 13:42 14,7 C 10,5 C 0,0 UV-I 0,0 C 54 % 71 % 0 % 976,4 hPa 0,0 l/m 22,1 km/h (4 Bft) 0 min 19,5 km/h (3 Bft)
28.02.2010 13:44 14,7 C 10,5 C 0,0 UV-I 0,0 C 54 % 71 % 0 % 976,4 hPa 0,0 l/m 20,9 km/h (4 Bft) 0 min 17,1 km/h (3 Bft)
28.02.2010 13:46 14,7 C 10,4 C 0,0 UV-I 0,0 C 54 % 71 % 0 % 976,4 hPa 0,0 l/m 20,5 km/h (4 Bft) 0 min 12,5 km/h (3 Bft)
28.02.2010 13:48 14,7 C 10,4 C 0,0 UV-I 0,0 C 54 % 70 % 0 % 976,4 hPa 0,0 l/m 21,7 km/h (4 Bft) 0 min 20,0 km/h (4 Bft)
28.02.2010 13:50 14,7 C 10,5 C 0,0 UV-I 0,0 C 54 % 71 % 0 % 976,4 hPa 0,0 l/m 20,1 km/h (4 Bft) 0 min 12,8 km/h (3 Bft)
28.02.2010 13:52 14,7 C 10,4 C 0,0 UV-I 0,0 C 53 % 71 % 0 % 976,4 hPa 0,0 l/m 19,3 km/h (3 Bft) 0 min 22,6 km/h (4 Bft)
28.02.2010 13:54 14,7 C 10,3 C 0,0 UV-I 0,0 C 54 % 70 % 0 % 976,4 hPa 0,3 l/m 22,1 km/h (4 Bft) 0 min 40,9 km/h (6 Bft)
28.02.2010 13:56 14,7 C 10,3 C 0,0 UV-I 0,0 C 53 % 70 % 0 % 976,4 hPa 0,0 l/m 23,7 km/h (4 Bft) 0 min 17,1 km/h (3 Bft)
28.02.2010 13:58 14,7 C 10,3 C 0,0 UV-I 0,0 C 53 % 70 % 0 % 976,4 hPa 0,0 l/m 25,3 km/h (4 Bft) 0 min 31,3 km/h (5 Bft)
28.02.2010 14:00 14,7 C 10,1 C 0,0 UV-I 0,0 C 53 % 71 % 0 % 976,4 hPa 0,0 l/m 28,1 km/h (4 Bft) 0 min 18,8 km/h (3 Bft)
28.02.2010 14:02 14,7 C 10,1 C 0,0 UV-I 0,0 C 53 % 71 % 0 % 976,4 hPa 0,0 l/m 29,7 km/h (5 Bft) 0 min 46,9 km/h (6 Bft)
28.02.2010 14:04 14,7 C 10,1 C 0,0 UV-I 0,0 C 53 % 72 % 0 % 976,4 hPa 0,0 l/m 26,9 km/h (4 Bft) 0 min 10,6 km/h (2 Bft)
28.02.2010 14:06 14,7 C 10,1 C 0,0 UV-I 0,0 C 53 % 72 % 0 % 976,4 hPa 0,0 l/m 25,3 km/h (4 Bft) 0 min 18,0 km/h (3 Bft)
28.02.2010 14:08 14,7 C 10,1 C 0,0 UV-I 0,0 C 53 % 72 % 0 % 976,4 hPa 0,0 l/m 23,7 km/h (4 Bft) 0 min 26,2 km/h (4 Bft)
28.02.2010 14:10 14,7 C 9,9 C 0,0 UV-I 0,0 C 53 % 72 % 0 % 976,4 hPa 0,0 l/m 20,5 km/h (4 Bft) 0 min 6,5 km/h (2 Bft)
28.02.2010 14:12 14,7 C 9,9 C 0,0 UV-I 0,0 C 53 % 73 % 0 % 976,8 hPa 0,0 l/m 20,5 km/h (4 Bft) 0 min 19,2 km/h (3 Bft)
28.02.2010 14:14 14,7 C 9,9 C 0,0 UV-I 0,0 C 53 % 73 % 0 % 976,8 hPa 0,0 l/m 20,9 km/h (4 Bft) 0 min 14,4 km/h (3 Bft)
28.02.2010 14:16 14,7 C 9,7 C 0,0 UV-I 0,0 C 53 % 73 % 0 % 976,8 hPa 0,0 l/m 20,5 km/h (4 Bft) 0 min 8,4 km/h (2 Bft)
28.02.2010 14:18 14,7 C 9,7 C 0,0 UV-I 0,0 C 53 % 73 % 0 % 976,8 hPa 0,0 l/m 20,5 km/h (4 Bft) 0 min 14,7 km/h (3 Bft)
28.02.2010 14:20 14,6 C 9,6 C 0,0 UV-I 0,0 C 53 % 73 % 0 % 976,8 hPa 0,0 l/m 22,1 km/h (4 Bft) 0 min 28,6 km/h (4 Bft)
28.02.2010 14:22 14,7 C 9,6 C 0,0 UV-I 0,0 C 53 % 73 % 0 % 976,8 hPa 0,0 l/m 23,3 km/h (4 Bft) 0 min 29,6 km/h (5 Bft)
28.02.2010 14:24 14,7 C 9,6 C 0,0 UV-I 0,0 C 53 % 71 % 0 % 976,8 hPa 0,0 l/m 23,3 km/h (4 Bft) 0 min 19,5 km/h (3 Bft)
28.02.2010 14:26 14,6 C 9,6 C 0,0 UV-I 0,0 C 53 % 72 % 0 % 976,8 hPa 0,5 l/m 25,3 km/h (4 Bft) 0 min 26,7 km/h (4 Bft)
28.02.2010 14:28 14,6 C 9,6 C 0,0 UV-I 0,0 C 53 % 71 % 0 % 976,8 hPa 0,0 l/m 28,5 km/h (4 Bft) 0 min 37,8 km/h (5 Bft)
28.02.2010 14:30 14,6 C 9,6 C 0,0 UV-I 0,0 C 53 % 71 % 0 % 976,8 hPa 0,0 l/m 30,1 km/h (5 Bft) 0 min 48,1 km/h (6 Bft)
28.02.2010 14:32 14,6 C 9,5 C 0,0 UV-I 0,0 C 53 % 71 % 0 % 976,4 hPa 0,0 l/m 32,1 km/h (5 Bft) 0 min 28,9 km/h (5 Bft)
28.02.2010 14:34 14,6 C 9,5 C 0,0 UV-I 0,0 C 53 % 71 % 0 % 976,4 hPa 0,0 l/m 33,3 km/h (5 Bft) 0 min 32,2 km/h (5 Bft)
28.02.2010 14:36 14,6 C 9,5 C 0,0 UV-I 0,0 C 53 % 71 % 0 % 976,4 hPa 0,0 l/m 34,5 km/h (5 Bft) 0 min 33,2 km/h (5 Bft)
28.02.2010 14:38 14,6 C 9,5 C 0,0 UV-I 0,0 C 52 % 72 % 0 % 976,4 hPa 0,0 l/m 34,9 km/h (5 Bft) 0 min 44,0 km/h (6 Bft)
28.02.2010 14:40 14,6 C 9,3 C 0,0 UV-I 0,0 C 52 % 73 % 0 % 976,4 hPa 0,0 l/m 33,7 km/h (5 Bft) 0 min 14,9 km/h (3 Bft)
28.02.2010 14:42 14,6 C 9,3 C 0,0 UV-I 0,0 C 53 % 73 % 0 % 976,4 hPa 0,0 l/m 33,3 km/h (5 Bft) 0 min 26,2 km/h (4 Bft)
28.02.2010 14:44 14,4 C 9,1 C 0,0 UV-I 0,0 C 53 % 75 % 0 % 976,4 hPa 0,0 l/m 32,1 km/h (5 Bft) 0 min 16,1 km/h (3 Bft)
28.02.2010 14:46 14,4 C 9,1 C 0,0 UV-I 0,0 C 53 % 76 % 0 % 976,4 hPa 0,0 l/m 28,9 km/h (5 Bft) 0 min 10,6 km/h (2 Bft)
28.02.2010 14:48 14,4 C 8,9 C 0,1 UV-I 0,0 C 53 % 75 % 0 % 976,4 hPa 0,0 l/m 29,7 km/h (5 Bft) 0 min 32,2 km/h (5 Bft)
28.02.2010 14:50 14,4 C 8,9 C 0,1 UV-I 0,0 C 53 % 76 % 0 % 976,4 hPa 0,6 l/m 28,5 km/h (4 Bft) 0 min 34,4 km/h (5 Bft)
28.02.2010 14:52 14,5 C 8,8 C 0,1 UV-I 0,0 C 53 % 76 % 0 % 977,4 hPa 0,0 l/m 28,5 km/h (4 Bft) 0 min 21,9 km/h (4 Bft)
28.02.2010 14:54 14,4 C 8,7 C 0,0 UV-I 0,0 C 53 % 76 % 0 % 977,4 hPa 0,0 l/m 28,9 km/h (5 Bft) 0 min 23,6 km/h (4 Bft)
28.02.2010 14:56 14,5 C 8,6 C 0,0 UV-I 0,0 C 53 % 76 % 0 % 977,4 hPa 0,0 l/m 28,9 km/h (5 Bft) 0 min 28,6 km/h (4 Bft)
28.02.2010 14:58 14,4 C 8,5 C 0,1 UV-I 0,0 C 53 % 76 % 0 % 977,4 hPa 0,0 l/m 30,9 km/h (5 Bft) 0 min 28,9 km/h (5 Bft)
28.02.2010 15:00 14,5 C 8,5 C 0,1 UV-I 0,0 C 53 % 77 % 0 % 977,4 hPa 0,0 l/m 28,5 km/h (4 Bft) 0 min 18,5 km/h (3 Bft)
28.02.2010 15:02 14,5 C 8,4 C 0,1 UV-I 0,0 C 53 % 77 % 0 % 977,4 hPa 0,0 l/m 25,7 km/h (4 Bft) 0 min 9,6 km/h (2 Bft)
28.02.2010 15:04 14,5 C 8,4 C 0,1 UV-I 0,0 C 53 % 77 % 0 % 977,4 hPa 0,0 l/m 23,3 km/h (4 Bft) 0 min 26,2 km/h (4 Bft)
28.02.2010 15:06 14,3 C 8,3 C 0,1 UV-I 0,0 C 53 % 77 % 0 % 977,4 hPa 0,0 l/m 26,5 km/h (4 Bft) 0 min 59,2 km/h (7 Bft)
28.02.2010 15:08 14,3 C 8,2 C 0,1 UV-I 0,0 C 53 % 78 % 0 % 977,4 hPa 0,0 l/m 28,1 km/h (4 Bft) 0 min 79,5 km/h (9 Bft)
28.02.2010 15:10 14,3 C 8,3 C 0,1 UV-I 0,0 C 53 % 78 % 0 % 977,4 hPa 0,0 l/m 27,7 km/h (4 Bft) 0 min 59,2 km/h (7 Bft)
28.02.2010 15:12 14,3 C 8,1 C 0,1 UV-I 0,0 C 53 % 77 % 0 % 977,2 hPa 0,0 l/m 30,1 km/h (5 Bft) 0 min 34,4 km/h (5 Bft)
28.02.2010 15:14 14,3 C 8,1 C 0,0 UV-I 0,0 C 53 % 78 % 0 % 977,2 hPa 0,0 l/m 31,3 km/h (5 Bft) 0 min 14,9 km/h (3 Bft)
28.02.2010 15:16 14,3 C 8,1 C 0,0 UV-I 0,0 C 53 % 78 % 0 % 977,2 hPa 0,0 l/m 30,5 km/h (5 Bft) 0 min 34,9 km/h (5 Bft)
28.02.2010 15:18 14,4 C 8,0 C 0,0 UV-I 0,0 C 53 % 77 % 0 % 977,2 hPa 0,0 l/m 29,7 km/h (5 Bft) 0 min 28,9 km/h (5 Bft)
28.02.2010 15:20 14,4 C 8,0 C 0,0 UV-I 0,0 C 53 % 77 % 0 % 977,2 hPa 1,1 l/m 27,7 km/h (4 Bft) 0 min 13,2 km/h (3 Bft)
28.02.2010 15:22 14,4 C 7,9 C 0,0 UV-I 0,0 C 53 % 78 % 0 % 977,2 hPa 0,0 l/m 26,1 km/h (4 Bft) 0 min 8,7 km/h (2 Bft)
28.02.2010 15:24 14,4 C 7,9 C 0,0 UV-I 0,0 C 53 % 78 % 0 % 977,2 hPa 0,0 l/m 24,5 km/h (4 Bft) 0 min 20,0 km/h (4 Bft)
28.02.2010 15:26 14,2 C 7,8 C 0,0 UV-I 0,0 C 53 % 78 % 0 % 977,2 hPa 0,0 l/m 27,7 km/h (4 Bft) 0 min 22,1 km/h (4 Bft)
28.02.2010 15:28 14,2 C 7,9 C 0,0 UV-I 0,0 C 53 % 78 % 0 % 977,2 hPa 0,0 l/m 27,3 km/h (4 Bft) 0 min 12,3 km/h (3 Bft)
28.02.2010 15:30 14,3 C 7,7 C 0,0 UV-I 0,0 C 53 % 78 % 0 % 977,2 hPa 0,0 l/m 30,1 km/h (5 Bft) 0 min 22,1 km/h (4 Bft)
28.02.2010 15:32 14,3 C 7,6 C 0,0 UV-I 0,0 C 53 % 78 % 0 % 977,4 hPa 0,0 l/m 32,5 km/h (5 Bft) 0 min 28,6 km/h (4 Bft)
28.02.2010 15:34 14,3 C 7,6 C 0,0 UV-I 0,0 C 53 % 79 % 0 % 977,4 hPa 0,0 l/m 34,5 km/h (5 Bft) 0 min 21,2 km/h (4 Bft)
28.02.2010 15:36 14,3 C 7,5 C 0,0 UV-I 0,0 C 53 % 80 % 0 % 977,4 hPa 0,0 l/m 34,9 km/h (5 Bft) 0 min 16,1 km/h (3 Bft)
28.02.2010 15:38 14,3 C 7,3 C 0,0 UV-I 0,0 C 53 % 79 % 0 % 977,4 hPa 0,0 l/m 33,7 km/h (5 Bft) 0 min 33,7 km/h (5 Bft)
28.02.2010 15:40 14,1 C 7,2 C 0,0 UV-I 0,0 C 53 % 80 % 0 % 977,4 hPa 0,0 l/m 34,1 km/h (5 Bft) 0 min 23,3 km/h (4 Bft)
28.02.2010 15:42 14,1 C 7,2 C 0,0 UV-I 0,0 C 53 % 81 % 0 % 977,4 hPa 0,0 l/m 31,7 km/h (5 Bft) 0 min 36,3 km/h (5 Bft)
28.02.2010 15:44 14,2 C 7,1 C 0,0 UV-I 0,0 C 53 % 81 % 0 % 977,4 hPa 0,0 l/m 32,5 km/h (5 Bft) 0 min 12,8 km/h (3 Bft)
28.02.2010 15:46 14,2 C 7,1 C 0,0 UV-I 0,0 C 53 % 81 % 0 % 977,4 hPa 0,0 l/m 32,1 km/h (5 Bft) 0 min 38,0 km/h (5 Bft)
28.02.2010 15:48 14,2 C 6,9 C 0,0 UV-I 0,0 C 53 % 81 % 0 % 977,4 hPa 0,0 l/m 33,3 km/h (5 Bft) 0 min 32,5 km/h (5 Bft)
28.02.2010 15:50 14,2 C 6,8 C 0,0 UV-I 0,0 C 53 % 82 % 0 % 977,4 hPa 0,0 l/m 32,5 km/h (5 Bft) 0 min 29,4 km/h (5 Bft)
28.02.2010 15:52 14,1 C 6,9 C 0,0 UV-I 0,0 C 53 % 82 % 0 % 977,8 hPa 0,0 l/m 34,1 km/h (5 Bft) 0 min 39,9 km/h (6 Bft)
28.02.2010 15:54 14,1 C 6,6 C 0,0 UV-I 0,0 C 53 % 82 % 0 % 977,8 hPa 0,0 l/m 31,7 km/h (5 Bft) 0 min 22,9 km/h (4 Bft)
28.02.2010 15:56 14,1 C 6,6 C 0,0 UV-I 0,0 C 53 % 83 % 0 % 977,8 hPa 0,0 l/m 33,3 km/h (5 Bft) 0 min 29,6 km/h (5 Bft)
28.02.2010 15:58 14,1 C 6,5 C 0,0 UV-I 0,0 C 53 % 83 % 0 % 977,8 hPa 0,0 l/m 32,1 km/h (5 Bft) 0 min 11,8 km/h (2 Bft)
28.02.2010 16:00 14,1 C 6,4 C 0,0 UV-I 0,0 C 53 % 83 % 0 % 977,8 hPa 0,0 l/m 32,1 km/h (5 Bft) 0 min 27,4 km/h (4 Bft)
28.02.2010 16:02 14,1 C 6,4 C 0,0 UV-I 0,0 C 53 % 83 % 0 % 977,8 hPa 0,5 l/m 30,9 km/h (5 Bft) 0 min 9,6 km/h (2 Bft)
28.02.2010 16:04 13,9 C 6,4 C 0,0 UV-I 0,0 C 53 % 83 % 0 % 977,8 hPa 0,0 l/m 30,9 km/h (5 Bft) 0 min 25,3 km/h (4 Bft)
28.02.2010 16:06 14,0 C 6,3 C 0,0 UV-I 0,0 C 53 % 84 % 0 % 977,8 hPa 0,1 l/m 33,3 km/h (5 Bft) 0 min 42,8 km/h (6 Bft)
28.02.2010 16:08 14,0 C 6,2 C 0,0 UV-I 0,0 C 53 % 84 % 0 % 977,8 hPa 0,0 l/m 31,7 km/h (5 Bft) 0 min 26,5 km/h (4 Bft)
28.02.2010 16:10 14,0 C 6,2 C 0,0 UV-I 0,0 C 53 % 85 % 0 % 977,8 hPa 0,0 l/m 34,5 km/h (5 Bft) 0 min 70,5 km/h (8 Bft)
28.02.2010 16:12 14,0 C 6,1 C 0,0 UV-I 0,0 C 53 % 84 % 0 % 978,2 hPa 0,0 l/m 36,5 km/h (5 Bft) 0 min 44,3 km/h (6 Bft)
28.02.2010 16:14 14,0 C 6,1 C 0,0 UV-I 0,0 C 53 % 85 % 0 % 978,2 hPa 0,0 l/m 38,9 km/h (6 Bft) 0 min 15,9 km/h (3 Bft)
28.02.2010 16:16 13,8 C 6,1 C 0,0 UV-I 0,0 C 53 % 84 % 0 % 978,2 hPa 0,0 l/m 40,2 km/h (6 Bft) 0 min 26,7 km/h (4 Bft)
28.02.2010 16:18 13,9 C 6,0 C 0,0 UV-I 0,0 C 53 % 84 % 0 % 978,2 hPa 0,0 l/m 41,4 km/h (6 Bft) 0 min 14,0 km/h (3 Bft)
28.02.2010 16:20 13,9 C 5,9 C 0,0 UV-I 0,0 C 53 % 84 % 0 % 978,2 hPa 0,0 l/m 41,0 km/h (6 Bft) 0 min 23,8 km/h (4 Bft)
28.02.2010 16:22 13,8 C 5,9 C 0,0 UV-I 0,0 C 53 % 84 % 0 % 978,2 hPa 0,0 l/m 39,3 km/h (6 Bft) 0 min 35,8 km/h (5 Bft)
28.02.2010 16:24 13,8 C 5,9 C 0,0 UV-I 0,0 C 53 % 84 % 0 % 978,2 hPa 0,0 l/m 37,3 km/h (5 Bft) 0 min 30,6 km/h (5 Bft)
28.02.2010 16:26 13,8 C 5,7 C 0,0 UV-I 0,0 C 53 % 84 % 0 % 978,2 hPa 0,0 l/m 39,3 km/h (6 Bft) 0 min 27,9 km/h (4 Bft)
28.02.2010 16:28 13,8 C 5,7 C 0,0 UV-I 0,0 C 53 % 84 % 0 % 978,2 hPa 0,0 l/m 38,5 km/h (5 Bft) 0 min 41,9 km/h (6 Bft)
28.02.2010 16:30 13,6 C 5,7 C 0,0 UV-I 0,0 C 53 % 85 % 0 % 978,2 hPa 0,0 l/m 37,7 km/h (5 Bft) 0 min 33,7 km/h (5 Bft)
28.02.2010 16:32 13,6 C 5,6 C 0,0 UV-I 0,0 C 53 % 85 % 0 % 978,6 hPa 0,0 l/m 37,7 km/h (5 Bft) 0 min 32,5 km/h (5 Bft)
28.02.2010 16:34 13,6 C 5,6 C 0,0 UV-I 0,0 C 53 % 85 % 0 % 978,6 hPa 0,0 l/m 40,6 km/h (6 Bft) 0 min 37,5 km/h (5 Bft)
28.02.2010 16:36 13,7 C 5,6 C 0,0 UV-I 0,0 C 53 % 85 % 0 % 978,6 hPa 0,0 l/m 40,2 km/h (6 Bft) 0 min 31,5 km/h (5 Bft)
28.02.2010 16:38 13,6 C 5,5 C 0,0 UV-I 0,0 C 53 % 86 % 0 % 978,6 hPa 0,0 l/m 37,3 km/h (5 Bft) 0 min 23,3 km/h (4 Bft)
28.02.2010 16:40 13,6 C 5,6 C 0,0 UV-I 0,0 C 53 % 86 % 0 % 978,6 hPa 0,0 l/m 35,7 km/h (5 Bft) 0 min 27,4 km/h (4 Bft)
28.02.2010 16:42 13,6 C 5,5 C 0,0 UV-I 0,0 C 53 % 86 % 0 % 978,6 hPa 0,0 l/m 36,5 km/h (5 Bft) 0 min 23,6 km/h (4 Bft)
28.02.2010 16:44 13,6 C 5,4 C 0,0 UV-I 0,0 C 53 % 86 % 0 % 978,6 hPa 0,0 l/m 36,1 km/h (5 Bft) 0 min 24,3 km/h (4 Bft)
28.02.2010 16:46 13,6 C 5,5 C 0,0 UV-I 0,0 C 53 % 87 % 0 % 978,6 hPa 0,0 l/m 32,1 km/h (5 Bft) 0 min 24,3 km/h (4 Bft)
28.02.2010 16:48 13,6 C 5,3 C 0,0 UV-I 0,0 C 53 % 86 % 0 % 978,6 hPa 0,0 l/m 33,3 km/h (5 Bft) 0 min 41,9 km/h (6 Bft)
28.02.2010 16:50 13,5 C 5,3 C 0,0 UV-I 0,0 C 53 % 86 % 0 % 978,6 hPa 0,0 l/m 35,3 km/h (5 Bft) 0 min 39,7 km/h (6 Bft)
28.02.2010 16:52 13,5 C 5,3 C 0,0 UV-I 0,0 C 53 % 86 % 0 % 980,5 hPa 0,4 l/m 35,7 km/h (5 Bft) 0 min 39,0 km/h (6 Bft)
28.02.2010 16:54 13,5 C 5,2 C 0,0 UV-I 0,0 C 53 % 86 % 0 % 980,5 hPa 0,9 l/m 36,9 km/h (5 Bft) 0 min 36,8 km/h (5 Bft)
28.02.2010 16:56 13,5 C 5,3 C 0,0 UV-I 0,0 C 53 % 87 % 0 % 980,5 hPa 0,0 l/m 37,7 km/h (5 Bft) 0 min 40,2 km/h (6 Bft)
28.02.2010 16:58 13,3 C 5,2 C 0,0 UV-I 0,0 C 53 % 87 % 0 % 980,5 hPa 0,0 l/m 40,6 km/h (6 Bft) 0 min 86,7 km/h (9 Bft)
28.02.2010 17:00 13,4 C 5,2 C 0,0 UV-I 0,0 C 53 % 87 % 0 % 980,5 hPa 0,0 l/m 41,8 km/h (6 Bft) 0 min 39,7 km/h (6 Bft)
28.02.2010 17:02 13,4 C 5,1 C 0,0 UV-I 0,0 C 53 % 87 % 0 % 980,5 hPa 0,0 l/m 43,0 km/h (6 Bft) 0 min 41,6 km/h (6 Bft)
28.02.2010 17:04 13,4 C 5,1 C 0,0 UV-I 0,0 C 53 % 87 % 0 % 980,5 hPa 0,0 l/m 40,6 km/h (6 Bft) 0 min 26,9 km/h (4 Bft)
28.02.2010 17:06 13,2 C 5,0 C 0,0 UV-I 0,0 C 53 % 87 % 0 % 980,5 hPa 0,0 l/m 39,3 km/h (6 Bft) 0 min 20,2 km/h (4 Bft)
28.02.2010 17:08 13,2 C 5,1 C 0,0 UV-I 0,0 C 53 % 88 % 0 % 980,5 hPa 0,0 l/m 37,3 km/h (5 Bft) 0 min 31,0 km/h (5 Bft)
28.02.2010 17:10 13,2 C 5,0 C 0,0 UV-I 0,0 C 53 % 87 % 0 % 980,5 hPa 0,0 l/m 36,9 km/h (5 Bft) 0 min 30,6 km/h (5 Bft)
28.02.2010 17:12 13,3 C 4,9 C 0,0 UV-I 0,0 C 53 % 87 % 0 % 980,9 hPa 0,0 l/m 37,7 km/h (5 Bft) 0 min 33,0 km/h (5 Bft)
28.02.2010 17:14 13,3 C 4,9 C 0,0 UV-I 0,0 C 53 % 88 % 0 % 980,9 hPa 0,0 l/m 36,1 km/h (5 Bft) 0 min 27,9 km/h (4 Bft)
28.02.2010 17:16 13,1 C 4,9 C 0,0 UV-I 0,0 C 53 % 88 % 0 % 980,9 hPa 0,0 l/m 37,3 km/h (5 Bft) 0 min 26,2 km/h (4 Bft)
28.02.2010 17:18 13,1 C 4,9 C 0,0 UV-I 0,0 C 53 % 88 % 0 % 980,9 hPa 0,0 l/m 40,6 km/h (6 Bft) 0 min 40,4 km/h (6 Bft)
28.02.2010 17:20 13,2 C 4,9 C 0,0 UV-I 0,0 C 53 % 88 % 0 % 980,9 hPa 0,0 l/m 42,2 km/h (6 Bft) 0 min 31,3 km/h (5 Bft)
28.02.2010 17:22 13,2 C 4,8 C 0,0 UV-I 0,0 C 53 % 88 % 0 % 980,9 hPa 1,2 l/m 41,4 km/h (6 Bft) 0 min 46,9 km/h (6 Bft)
28.02.2010 17:24 13,2 C 4,8 C 0,0 UV-I 0,0 C 53 % 88 % 0 % 980,9 hPa 0,0 l/m 41,4 km/h (6 Bft) 0 min 29,8 km/h (5 Bft)
28.02.2010 17:26 13,2 C 4,8 C 0,0 UV-I 0,0 C 53 % 88 % 0 % 980,9 hPa 0,0 l/m 40,2 km/h (6 Bft) 0 min 30,1 km/h (5 Bft)
28.02.2010 17:28 13,1 C 4,8 C 0,0 UV-I 0,0 C 53 % 88 % 0 % 980,9 hPa 0,0 l/m 39,3 km/h (6 Bft) 0 min 26,5 km/h (4 Bft)
28.02.2010 17:30 13,1 C 4,8 C 0,0 UV-I 0,0 C 53 % 88 % 0 % 980,9 hPa 0,0 l/m 34,9 km/h (5 Bft) 0 min 21,4 km/h (4 Bft)
28.02.2010 17:32 13,1 C 4,8 C 0,0 UV-I 0,0 C 53 % 88 % 0 % 982,2 hPa 0,0 l/m 34,5 km/h (5 Bft) 0 min 23,8 km/h (4 Bft)
28.02.2010 17:34 13,1 C 4,8 C 0,0 UV-I 0,0 C 53 % 88 % 0 % 982,2 hPa 0,0 l/m 32,9 km/h (5 Bft) 0 min 43,3 km/h (6 Bft)
28.02.2010 17:36 12,9 C 4,9 C 0,0 UV-I 0,0 C 53 % 89 % 0 % 982,2 hPa 0,0 l/m 32,5 km/h (5 Bft) 0 min 27,9 km/h (4 Bft)
28.02.2010 17:38 13,1 C 4,8 C 0,0 UV-I 0,0 C 53 % 89 % 0 % 982,2 hPa 0,0 l/m 32,9 km/h (5 Bft) 0 min 26,5 km/h (4 Bft)
28.02.2010 17:40 12,9 C 4,9 C 0,0 UV-I 0,0 C 53 % 89 % 0 % 982,2 hPa 0,0 l/m 34,9 km/h (5 Bft) 0 min 38,5 km/h (5 Bft)
28.02.2010 17:42 13,0 C 4,8 C 0,0 UV-I 0,0 C 53 % 89 % 0 % 982,2 hPa 0,0 l/m 34,1 km/h (5 Bft) 0 min 25,5 km/h (4 Bft)
28.02.2010 17:44 13,0 C 4,9 C 0,0 UV-I 0,0 C 53 % 89 % 0 % 982,2 hPa 0,0 l/m 33,7 km/h (5 Bft) 0 min 15,2 km/h (3 Bft)
28.02.2010 17:46 13,0 C 4,8 C 0,0 UV-I 0,0 C 53 % 89 % 0 % 982,2 hPa 0,0 l/m 32,9 km/h (5 Bft) 0 min 26,7 km/h (4 Bft)
28.02.2010 17:48 13,0 C 4,8 C 0,0 UV-I 0,0 C 54 % 89 % 0 % 982,2 hPa 0,0 l/m 33,3 km/h (5 Bft) 0 min 25,7 km/h (4 Bft)
28.02.2010 17:50 13,0 C 4,9 C 0,0 UV-I 0,0 C 54 % 89 % 0 % 982,2 hPa 0,0 l/m 32,1 km/h (5 Bft) 0 min 26,7 km/h (4 Bft)
28.02.2010 17:52 12,8 C 4,8 C 0,0 UV-I 0,0 C 54 % 89 % 0 % 983,4 hPa 0,0 l/m 30,5 km/h (5 Bft) 0 min 14,9 km/h (3 Bft)
28.02.2010 17:54 12,8 C 4,9 C 0,0 UV-I 0,0 C 54 % 89 % 0 % 983,4 hPa 0,0 l/m 28,9 km/h (5 Bft) 0 min 30,8 km/h (5 Bft)
28.02.2010 17:56 12,8 C 4,9 C 0,0 UV-I 0,0 C 54 % 89 % 0 % 983,4 hPa 0,0 l/m 31,7 km/h (5 Bft) 0 min 29,1 km/h (5 Bft)
28.02.2010 17:58 12,8 C 4,9 C 0,0 UV-I 0,0 C 54 % 89 % 0 % 983,4 hPa 0,0 l/m 30,9 km/h (5 Bft) 0 min 14,4 km/h (3 Bft)
28.02.2010 18:00 12,8 C 4,9 C 0,0 UV-I 0,0 C 54 % 89 % 0 % 983,4 hPa 0,0 l/m 32,9 km/h (5 Bft) 0 min 49,6 km/h (6 Bft)
28.02.2010 18:02 12,8 C 5,0 C 0,0 UV-I 0,0 C 54 % 89 % 0 % 983,4 hPa 0,0 l/m 34,5 km/h (5 Bft) 0 min 31,0 km/h (5 Bft)
28.02.2010 18:04 12,8 C 5,1 C 0,0 UV-I 0,0 C 54 % 89 % 0 % 983,4 hPa 0,0 l/m 36,1 km/h (5 Bft) 0 min 33,2 km/h (5 Bft)
28.02.2010 18:06 12,9 C 5,1 C 0,0 UV-I 0,0 C 54 % 89 % 0 % 983,4 hPa 0,0 l/m 34,5 km/h (5 Bft) 0 min 26,2 km/h (4 Bft)
28.02.2010 18:08 12,8 C 5,1 C 0,0 UV-I 0,0 C 54 % 89 % 0 % 983,4 hPa 0,0 l/m 34,9 km/h (5 Bft) 0 min 24,3 km/h (4 Bft)
28.02.2010 18:10 12,8 C 5,1 C 0,0 UV-I 0,0 C 54 % 89 % 0 % 983,4 hPa 0,0 l/m 36,9 km/h (5 Bft) 0 min 35,8 km/h (5 Bft)
28.02.2010 18:12 12,8 C 5,1 C 0,0 UV-I 0,0 C 54 % 89 % 0 % 984,2 hPa 0,0 l/m 35,3 km/h (5 Bft) 0 min 37,5 km/h (5 Bft)
28.02.2010 18:14 12,8 C 5,0 C 0,0 UV-I 0,0 C 54 % 89 % 0 % 984,2 hPa 0,0 l/m 31,7 km/h (5 Bft) 0 min 8,2 km/h (2 Bft)
28.02.2010 18:16 12,8 C 5,1 C 0,0 UV-I 0,0 C 54 % 89 % 0 % 984,2 hPa 0,0 l/m 31,3 km/h (5 Bft) 0 min 33,4 km/h (5 Bft)
28.02.2010 18:18 12,8 C 5,0 C 0,0 UV-I 0,0 C 54 % 89 % 0 % 984,2 hPa 0,0 l/m 31,7 km/h (5 Bft) 0 min 38,7 km/h (5 Bft)
28.02.2010 18:20 12,8 C 5,0 C 0,0 UV-I 0,0 C 54 % 89 % 0 % 984,2 hPa 0,0 l/m 30,9 km/h (5 Bft) 0 min 16,8 km/h (3 Bft)
28.02.2010 18:22 12,8 C 5,0 C 0,0 UV-I 0,0 C 54 % 89 % 0 % 984,2 hPa 0,0 l/m 28,5 km/h (4 Bft) 0 min 23,1 km/h (4 Bft)
28.02.2010 18:24 12,8 C 5,0 C 0,0 UV-I 0,0 C 54 % 89 % 0 % 984,2 hPa 1,3 l/m 28,1 km/h (4 Bft) 0 min 21,9 km/h (4 Bft)
28.02.2010 18:26 12,8 C 5,1 C 0,0 UV-I 0,0 C 54 % 89 % 0 % 984,2 hPa 0,0 l/m 28,1 km/h (4 Bft) 0 min 26,9 km/h (4 Bft)
28.02.2010 18:28 12,8 C 5,1 C 0,0 UV-I 0,0 C 54 % 89 % 0 % 984,2 hPa 0,0 l/m 29,3 km/h (5 Bft) 0 min 24,3 km/h (4 Bft)
28.02.2010 18:30 12,8 C 5,1 C 0,0 UV-I 0,0 C 54 % 89 % 0 % 984,2 hPa 0,0 l/m 28,5 km/h (4 Bft) 0 min 24,5 km/h (4 Bft)
28.02.2010 18:32 12,8 C 5,2 C 0,0 UV-I 0,0 C 54 % 89 % 0 % 986,0 hPa 0,0 l/m 28,1 km/h (4 Bft) 0 min 26,0 km/h (4 Bft)
28.02.2010 18:34 12,8 C 5,2 C 0,0 UV-I 0,0 C 54 % 89 % 0 % 986,0 hPa 0,0 l/m 28,1 km/h (4 Bft) 0 min 17,1 km/h (3 Bft)
28.02.2010 18:36 12,8 C 5,2 C 0,0 UV-I 0,0 C 54 % 89 % 0 % 986,0 hPa 0,0 l/m 29,7 km/h (5 Bft) 0 min 16,1 km/h (3 Bft)
28.02.2010 18:38 12,8 C 5,2 C 0,0 UV-I 0,0 C 54 % 89 % 0 % 986,0 hPa 0,0 l/m 29,3 km/h (5 Bft) 0 min 20,2 km/h (4 Bft)
28.02.2010 18:40 12,8 C 5,2 C 0,0 UV-I 0,0 C 54 % 89 % 0 % 986,0 hPa 0,0 l/m 29,3 km/h (5 Bft) 0 min 26,0 km/h (4 Bft)
28.02.2010 18:42 12,8 C 5,2 C 0,0 UV-I 0,0 C 54 % 89 % 0 % 986,0 hPa 0,0 l/m 28,5 km/h (4 Bft) 0 min 21,7 km/h (4 Bft)
28.02.2010 18:44 12,8 C 5,2 C 0,0 UV-I 0,0 C 54 % 89 % 0 % 986,0 hPa 0,0 l/m 30,5 km/h (5 Bft) 0 min 30,3 km/h (5 Bft)
28.02.2010 18:46 12,8 C 5,2 C 0,0 UV-I 0,0 C 54 % 89 % 0 % 986,0 hPa 0,0 l/m 29,3 km/h (5 Bft) 0 min 27,7 km/h (4 Bft)
28.02.2010 18:48 12,8 C 5,2 C 0,0 UV-I 0,0 C 55 % 89 % 0 % 986,0 hPa 0,3 l/m 27,3 km/h (4 Bft) 0 min 13,5 km/h (3 Bft)
28.02.2010 18:50 12,8 C 5,3 C 0,0 UV-I 0,0 C 55 % 89 % 0 % 986,0 hPa 1,8 l/m 28,1 km/h (4 Bft) 0 min 23,6 km/h (4 Bft)
28.02.2010 18:52 12,8 C 5,2 C 0,0 UV-I 0,0 C 55 % 89 % 0 % 986,9 hPa 0,0 l/m 27,7 km/h (4 Bft) 0 min 24,1 km/h (4 Bft)
28.02.2010 18:54 12,8 C 5,2 C 0,0 UV-I 0,0 C 55 % 89 % 0 % 986,9 hPa 0,0 l/m 26,5 km/h (4 Bft) 0 min 24,5 km/h (4 Bft)
28.02.2010 18:56 12,8 C 5,2 C 0,0 UV-I 0,0 C 55 % 89 % 0 % 986,9 hPa 0,0 l/m 24,9 km/h (4 Bft) 0 min 15,9 km/h (3 Bft)
28.02.2010 18:58 12,8 C 5,2 C 0,0 UV-I 0,0 C 55 % 89 % 0 % 986,9 hPa 0,0 l/m 23,3 km/h (4 Bft) 0 min 11,5 km/h (2 Bft)
28.02.2010 19:00 12,8 C 5,2 C 0,0 UV-I 0,0 C 55 % 89 % 0 % 986,9 hPa 0,0 l/m 22,1 km/h (4 Bft) 0 min 9,6 km/h (2 Bft)
28.02.2010 19:02 12,8 C 5,2 C 0,0 UV-I 0,0 C 55 % 89 % 0 % 986,9 hPa 0,0 l/m 22,1 km/h (4 Bft) 0 min 26,0 km/h (4 Bft)
28.02.2010 19:06 12,8 C 5,3 C 0,0 UV-I 0,0 C 55 % 89 % 0 % 986,9 hPa 0,0 l/m 22,1 km/h (4 Bft) 0 min 25,3 km/h (4 Bft)
28.02.2010 19:08 12,8 C 5,3 C 0,0 UV-I 0,0 C 55 % 89 % 0 % 986,9 hPa 0,0 l/m 22,5 km/h (4 Bft) 0 min 14,7 km/h (3 Bft)
28.02.2010 19:10 12,8 C 5,3 C 0,0 UV-I 0,0 C 55 % 89 % 0 % 986,9 hPa 0,0 l/m 22,5 km/h (4 Bft) 0 min 12,8 km/h (3 Bft)
28.02.2010 19:12 12,8 C 5,3 C 0,0 UV-I 0,0 C 55 % 89 % 0 % 987,8 hPa 0,0 l/m 23,3 km/h (4 Bft) 0 min 20,2 km/h (4 Bft)
28.02.2010 19:14 12,8 C 5,3 C 0,0 UV-I 0,0 C 55 % 89 % 0 % 987,8 hPa 0,0 l/m 23,7 km/h (4 Bft) 0 min 22,6 km/h (4 Bft)
28.02.2010 19:16 12,8 C 5,3 C 0,0 UV-I 0,0 C 55 % 90 % 0 % 987,8 hPa 0,0 l/m 24,5 km/h (4 Bft) 0 min 28,9 km/h (5 Bft)
28.02.2010 19:18 12,6 C 5,3 C 0,0 UV-I 0,0 C 55 % 90 % 0 % 987,8 hPa 0,0 l/m 22,9 km/h (4 Bft) 0 min 14,2 km/h (3 Bft)
28.02.2010 19:20 12,8 C 5,4 C 0,0 UV-I 0,0 C 55 % 90 % 0 % 987,8 hPa 0,0 l/m 25,3 km/h (4 Bft) 0 min 35,4 km/h (5 Bft)
28.02.2010 19:24 12,8 C 5,5 C 0,0 UV-I 0,0 C 55 % 90 % 0 % 987,8 hPa 0,0 l/m 24,5 km/h (4 Bft) 0 min 20,0 km/h (4 Bft)
28.02.2010 19:26 12,8 C 5,5 C 0,0 UV-I 0,0 C 55 % 90 % 0 % 987,8 hPa 0,0 l/m 23,7 km/h (4 Bft) 0 min 29,8 km/h (5 Bft)
28.02.2010 19:28 12,8 C 5,5 C 0,0 UV-I 0,0 C 55 % 90 % 0 % 987,8 hPa 0,0 l/m 24,1 km/h (4 Bft) 0 min 33,2 km/h (5 Bft)
28.02.2010 19:30 12,8 C 5,5 C 0,0 UV-I 0,0 C 55 % 90 % 0 % 987,8 hPa 0,0 l/m 24,5 km/h (4 Bft) 0 min 18,0 km/h (3 Bft)
28.02.2010 19:32 12,8 C 5,5 C 0,0 UV-I 0,0 C 55 % 90 % 0 % 989,2 hPa 0,0 l/m 23,7 km/h (4 Bft) 0 min 13,2 km/h (3 Bft)
28.02.2010 19:34 12,6 C 5,5 C 0,0 UV-I 0,0 C 55 % 90 % 0 % 989,2 hPa 0,0 l/m 23,3 km/h (4 Bft) 0 min 20,7 km/h (4 Bft)
28.02.2010 19:36 12,6 C 5,5 C 0,0 UV-I 0,0 C 55 % 90 % 0 % 989,2 hPa 0,0 l/m 24,5 km/h (4 Bft) 0 min 19,2 km/h (3 Bft)
28.02.2010 19:38 12,6 C 5,5 C 0,0 UV-I 0,0 C 55 % 90 % 0 % 989,2 hPa 0,0 l/m 24,1 km/h (4 Bft) 0 min 13,7 km/h (3 Bft)
28.02.2010 19:40 12,8 C 5,5 C 0,0 UV-I 0,0 C 55 % 90 % 0 % 989,2 hPa 0,0 l/m 22,9 km/h (4 Bft) 0 min 12,3 km/h (3 Bft)
28.02.2010 19:42 12,8 C 5,5 C 0,0 UV-I 0,0 C 55 % 90 % 0 % 989,2 hPa 0,0 l/m 22,5 km/h (4 Bft) 0 min 7,7 km/h (2 Bft)
28.02.2010 19:44 12,6 C 5,5 C 0,0 UV-I 0,0 C 55 % 90 % 0 % 989,2 hPa 0,0 l/m 22,5 km/h (4 Bft) 0 min 10,3 km/h (2 Bft)
28.02.2010 19:46 12,6 C 5,5 C 0,0 UV-I 0,0 C 55 % 89 % 0 % 989,2 hPa 0,0 l/m 22,9 km/h (4 Bft) 0 min 19,2 km/h (3 Bft)
28.02.2010 19:48 12,6 C 5,5 C 0,0 UV-I 0,0 C 56 % 90 % 0 % 989,2 hPa 0,0 l/m 20,9 km/h (4 Bft) 0 min 26,9 km/h (4 Bft)
28.02.2010 19:50 12,6 C 5,5 C 0,0 UV-I 0,0 C 56 % 90 % 0 % 989,2 hPa 0,0 l/m 20,9 km/h (4 Bft) 0 min 19,2 km/h (3 Bft)
28.02.2010 19:52 12,6 C 5,4 C 0,0 UV-I 0,0 C 56 % 89 % 0 % 989,2 hPa 0,0 l/m 22,1 km/h (4 Bft) 0 min 18,0 km/h (3 Bft)
28.02.2010 19:54 12,6 C 5,4 C 0,0 UV-I 0,0 C 56 % 89 % 0 % 989,2 hPa 0,0 l/m 22,9 km/h (4 Bft) 0 min 19,2 km/h (3 Bft)
28.02.2010 19:56 12,6 C 5,4 C 0,0 UV-I 0,0 C 56 % 89 % 0 % 989,2 hPa 0,0 l/m 22,9 km/h (4 Bft) 0 min 21,7 km/h (4 Bft)
28.02.2010 19:58 12,6 C 5,4 C 0,0 UV-I 0,0 C 56 % 89 % 0 % 989,2 hPa 0,0 l/m 22,9 km/h (4 Bft) 0 min 21,2 km/h (4 Bft)
28.02.2010 20:00 12,8 C 5,5 C 0,0 UV-I 0,0 C 55 % 90 % 0 % 989,2 hPa 0,0 l/m 23,3 km/h (4 Bft) 0 min 9,1 km/h (2 Bft)
28.02.2010 20:02 12,8 C 5,3 C 0,0 UV-I 0,0 C 55 % 89 % 0 % 989,2 hPa 0,0 l/m 22,9 km/h (4 Bft) 0 min 29,1 km/h (5 Bft)
28.02.2010 20:04 12,8 C 5,4 C 0,0 UV-I 0,0 C 56 % 90 % 0 % 989,2 hPa 0,0 l/m 22,9 km/h (4 Bft) 0 min 14,4 km/h (3 Bft)
28.02.2010 20:06 12,6 C 5,4 C 0,0 UV-I 0,0 C 55 % 89 % 0 % 989,2 hPa 0,0 l/m 25,3 km/h (4 Bft) 0 min 18,0 km/h (3 Bft)
28.02.2010 20:08 12,8 C 5,4 C 0,0 UV-I 0,0 C 56 % 89 % 0 % 989,2 hPa 0,0 l/m 26,5 km/h (4 Bft) 0 min 13,7 km/h (3 Bft)
28.02.2010 20:10 12,8 C 5,5 C 0,0 UV-I 0,0 C 55 % 89 % 0 % 989,2 hPa 0,0 l/m 25,3 km/h (4 Bft) 0 min 20,0 km/h (4 Bft)
28.02.2010 20:12 12,8 C 5,4 C 0,0 UV-I 0,0 C 55 % 90 % 0 % 990,3 hPa 0,0 l/m 26,5 km/h (4 Bft) 0 min 25,0 km/h (4 Bft)
28.02.2010 20:14 12,6 C 5,3 C 0,0 UV-I 0,0 C 55 % 89 % 0 % 990,3 hPa 0,0 l/m 25,3 km/h (4 Bft) 0 min 17,1 km/h (3 Bft)
28.02.2010 20:16 12,8 C 5,3 C 0,0 UV-I 0,0 C 55 % 89 % 0 % 990,3 hPa 0,0 l/m 24,1 km/h (4 Bft) 0 min 30,1 km/h (5 Bft)
28.02.2010 20:18 12,8 C 5,4 C 0,0 UV-I 0,0 C 56 % 89 % 0 % 990,3 hPa 1,7 l/m 24,1 km/h (4 Bft) 0 min 33,7 km/h (5 Bft)
28.02.2010 20:20 12,6 C 5,4 C 0,0 UV-I 0,0 C 55 % 89 % 0 % 990,3 hPa 0,0 l/m 24,5 km/h (4 Bft) 0 min 19,2 km/h (3 Bft)
28.02.2010 20:22 12,7 C 5,4 C 0,0 UV-I 0,0 C 56 % 89 % 0 % 990,3 hPa 0,0 l/m 24,5 km/h (4 Bft) 0 min 22,9 km/h (4 Bft)
28.02.2010 20:24 12,7 C 5,4 C 0,0 UV-I 0,0 C 56 % 89 % 0 % 990,3 hPa 0,0 l/m 24,1 km/h (4 Bft) 0 min 26,9 km/h (4 Bft)
28.02.2010 20:26 12,7 C 5,3 C 0,0 UV-I 0,0 C 56 % 89 % 0 % 990,3 hPa 0,0 l/m 24,1 km/h (4 Bft) 0 min 22,1 km/h (4 Bft)
28.02.2010 20:30 12,7 C 5,4 C 0,0 UV-I 0,0 C 56 % 89 % 0 % 990,3 hPa 0,0 l/m 24,5 km/h (4 Bft) 0 min 34,2 km/h (5 Bft)
28.02.2010 20:32 12,6 C 5,4 C 0,0 UV-I 0,0 C 56 % 89 % 0 % 991,1 hPa 0,0 l/m 22,5 km/h (4 Bft) 0 min 11,5 km/h (2 Bft)
28.02.2010 20:34 12,7 C 5,4 C 0,0 UV-I 0,0 C 56 % 89 % 0 % 991,1 hPa 0,0 l/m 22,1 km/h (4 Bft) 0 min 28,1 km/h (4 Bft)
28.02.2010 20:36 12,7 C 5,5 C 0,0 UV-I 0,0 C 56 % 89 % 0 % 991,1 hPa 0,0 l/m 23,3 km/h (4 Bft) 0 min 40,7 km/h (6 Bft)
28.02.2010 20:38 12,7 C 5,4 C 0,0 UV-I 0,0 C 56 % 89 % 0 % 991,1 hPa 0,0 l/m 22,9 km/h (4 Bft) 0 min 23,6 km/h (4 Bft)
28.02.2010 20:40 12,7 C 5,4 C 0,0 UV-I 0,0 C 56 % 89 % 0 % 991,1 hPa 0,0 l/m 22,5 km/h (4 Bft) 0 min 13,2 km/h (3 Bft)
28.02.2010 20:42 12,7 C 5,5 C 0,0 UV-I 0,0 C 56 % 89 % 0 % 991,1 hPa 0,0 l/m 22,1 km/h (4 Bft) 0 min 17,3 km/h (3 Bft)
28.02.2010 20:44 12,7 C 5,4 C 0,0 UV-I 0,0 C 56 % 89 % 0 % 991,1 hPa 0,0 l/m 22,9 km/h (4 Bft) 0 min 26,5 km/h (4 Bft)
28.02.2010 20:46 12,7 C 5,4 C 0,0 UV-I 0,0 C 56 % 89 % 0 % 991,1 hPa 0,0 l/m 21,7 km/h (4 Bft) 0 min 15,2 km/h (3 Bft)
28.02.2010 20:48 12,7 C 5,5 C 0,0 UV-I 0,0 C 56 % 89 % 0 % 991,1 hPa 0,0 l/m 20,1 km/h (4 Bft) 0 min 6,7 km/h (2 Bft)
28.02.2010 20:50 12,7 C 5,4 C 0,0 UV-I 0,0 C 56 % 89 % 0 % 991,1 hPa 0,0 l/m 19,3 km/h (3 Bft) 0 min 25,7 km/h (4 Bft)
28.02.2010 20:54 12,7 C 5,4 C 0,0 UV-I 0,0 C 56 % 89 % 0 % 991,6 hPa 0,0 l/m 20,1 km/h (4 Bft) 0 min 13,7 km/h (3 Bft)
28.02.2010 20:56 12,7 C 5,4 C 0,0 UV-I 0,0 C 55 % 89 % 0 % 991,6 hPa 0,0 l/m 20,9 km/h (4 Bft) 0 min 13,5 km/h (3 Bft)
28.02.2010 20:58 12,7 C 5,4 C 0,0 UV-I 0,0 C 56 % 89 % 0 % 991,6 hPa 0,0 l/m 22,5 km/h (4 Bft) 0 min 25,3 km/h (4 Bft)
28.02.2010 21:00 12,7 C 5,4 C 0,0 UV-I 0,0 C 56 % 89 % 0 % 991,6 hPa 0,0 l/m 24,1 km/h (4 Bft) 0 min 17,1 km/h (3 Bft)
28.02.2010 21:04 12,7 C 5,4 C 0,0 UV-I 0,0 C 55 % 89 % 0 % 991,6 hPa 0,0 l/m 23,7 km/h (4 Bft) 0 min 26,2 km/h (4 Bft)
28.02.2010 21:06 12,6 C 5,3 C 0,0 UV-I 0,0 C 55 % 89 % 0 % 991,6 hPa 0,0 l/m 23,3 km/h (4 Bft) 0 min 25,5 km/h (4 Bft)
28.02.2010 21:08 12,6 C 5,4 C 0,0 UV-I 0,0 C 55 % 89 % 0 % 991,6 hPa 0,0 l/m 22,9 km/h (4 Bft) 0 min 22,6 km/h (4 Bft)
28.02.2010 21:10 12,7 C 5,3 C 0,0 UV-I 0,0 C 56 % 89 % 0 % 991,6 hPa 0,0 l/m 21,3 km/h (4 Bft) 0 min 23,3 km/h (4 Bft)
28.02.2010 21:12 12,6 C 5,4 C 0,0 UV-I 0,0 C 56 % 89 % 0 % 992,1 hPa 0,0 l/m 20,9 km/h (4 Bft) 0 min 15,4 km/h (3 Bft)
28.02.2010 21:14 12,6 C 5,3 C 0,0 UV-I 0,0 C 56 % 89 % 0 % 992,1 hPa 0,0 l/m 20,5 km/h (4 Bft) 0 min 13,0 km/h (3 Bft)
28.02.2010 21:16 12,7 C 5,3 C 0,0 UV-I 0,0 C 56 % 89 % 0 % 992,1 hPa 0,0 l/m 20,5 km/h (4 Bft) 0 min 20,9 km/h (4 Bft)
28.02.2010 21:18 12,6 C 5,4 C 0,0 UV-I 0,0 C 56 % 89 % 0 % 992,1 hPa 0,0 l/m 18,9 km/h (3 Bft) 0 min 7,5 km/h (2 Bft)
28.02.2010 21:20 12,6 C 5,3 C 0,0 UV-I 0,0 C 56 % 89 % 0 % 992,1 hPa 0,0 l/m 18,5 km/h (3 Bft) 0 min 10,1 km/h (2 Bft)
28.02.2010 21:22 12,7 C 5,3 C 0,0 UV-I 0,0 C 56 % 89 % 0 % 992,1 hPa 0,0 l/m 17,7 km/h (3 Bft) 0 min 14,9 km/h (3 Bft)
28.02.2010 21:24 12,7 C 5,3 C 0,0 UV-I 0,0 C 56 % 89 % 0 % 992,1 hPa 0,0 l/m 17,7 km/h (3 Bft) 0 min 12,3 km/h (3 Bft)
28.02.2010 21:26 12,7 C 5,3 C 0,0 UV-I 0,0 C 56 % 89 % 0 % 992,1 hPa 0,0 l/m 18,5 km/h (3 Bft) 0 min 17,3 km/h (3 Bft)
28.02.2010 21:28 12,7 C 5,3 C 0,0 UV-I 0,0 C 56 % 89 % 0 % 992,1 hPa 0,0 l/m 19,3 km/h (3 Bft) 0 min 23,6 km/h (4 Bft)
28.02.2010 21:30 12,7 C 5,2 C 0,0 UV-I 0,0 C 56 % 89 % 0 % 992,1 hPa 0,0 l/m 18,9 km/h (3 Bft) 0 min 19,2 km/h (3 Bft)
28.02.2010 21:32 12,6 C 5,2 C 0,0 UV-I 0,0 C 56 % 89 % 0 % 992,9 hPa 0,0 l/m 19,3 km/h (3 Bft) 0 min 13,2 km/h (3 Bft)
28.02.2010 21:34 12,7 C 5,2 C 0,0 UV-I 0,0 C 56 % 89 % 0 % 992,9 hPa 0,0 l/m 17,7 km/h (3 Bft) 0 min 13,0 km/h (3 Bft)
28.02.2010 21:36 12,6 C 5,2 C 0,0 UV-I 0,0 C 56 % 89 % 0 % 992,9 hPa 0,0 l/m 18,9 km/h (3 Bft) 0 min 16,4 km/h (3 Bft)
28.02.2010 21:38 12,7 C 5,2 C 0,0 UV-I 0,0 C 56 % 89 % 0 % 992,9 hPa 0,5 l/m 18,5 km/h (3 Bft) 0 min 13,5 km/h (3 Bft)
28.02.2010 21:40 12,7 C 5,2 C 0,0 UV-I 0,0 C 56 % 89 % 0 % 992,9 hPa 0,0 l/m 17,3 km/h (3 Bft) 0 min 6,7 km/h (2 Bft)
28.02.2010 21:42 12,7 C 5,2 C 0,0 UV-I 0,0 C 56 % 90 % 0 % 992,9 hPa 0,0 l/m 17,7 km/h (3 Bft) 0 min 14,2 km/h (3 Bft)
28.02.2010 21:44 12,6 C 5,2 C 0,0 UV-I 0,0 C 56 % 90 % 0 % 992,9 hPa 0,0 l/m 18,5 km/h (3 Bft) 0 min 17,8 km/h (3 Bft)
28.02.2010 21:46 12,6 C 5,2 C 0,0 UV-I 0,0 C 56 % 90 % 0 % 992,9 hPa 0,0 l/m 18,5 km/h (3 Bft) 0 min 14,2 km/h (3 Bft)
28.02.2010 21:48 12,7 C 5,2 C 0,0 UV-I 0,0 C 56 % 90 % 0 % 992,9 hPa 0,0 l/m 17,3 km/h (3 Bft) 0 min 9,1 km/h (2 Bft)
28.02.2010 21:52 12,6 C 5,2 C 0,0 UV-I 0,0 C 56 % 90 % 0 % 993,5 hPa 0,0 l/m 17,7 km/h (3 Bft) 0 min 10,3 km/h (2 Bft)
28.02.2010 21:54 12,7 C 5,2 C 0,0 UV-I 0,0 C 56 % 90 % 0 % 993,5 hPa 0,0 l/m 17,7 km/h (3 Bft) 0 min 13,0 km/h (3 Bft)
28.02.2010 21:56 12,6 C 5,2 C 0,0 UV-I 0,0 C 56 % 90 % 0 % 993,5 hPa 0,0 l/m 16,1 km/h (3 Bft) 0 min 9,4 km/h (2 Bft)
28.02.2010 21:58 12,7 C 5,2 C 0,0 UV-I 0,0 C 56 % 90 % 0 % 993,5 hPa 0,0 l/m 14,9 km/h (3 Bft) 0 min 6,3 km/h (2 Bft)
28.02.2010 22:00 12,7 C 5,1 C 0,0 UV-I 0,0 C 56 % 90 % 0 % 993,5 hPa 0,0 l/m 14,5 km/h (3 Bft) 0 min 12,0 km/h (2 Bft)
28.02.2010 22:02 12,6 C 5,1 C 0,0 UV-I 0,0 C 56 % 90 % 0 % 993,5 hPa 0,0 l/m 15,3 km/h (3 Bft) 0 min 15,2 km/h (3 Bft)
28.02.2010 22:04 12,6 C 5,1 C 0,0 UV-I 0,0 C 56 % 90 % 0 % 993,5 hPa 0,0 l/m 16,1 km/h (3 Bft) 0 min 18,8 km/h (3 Bft)
28.02.2010 22:06 12,7 C 5,1 C 0,0 UV-I 0,0 C 56 % 90 % 0 % 993,5 hPa 0,0 l/m 16,9 km/h (3 Bft) 0 min 16,1 km/h (3 Bft)
28.02.2010 22:08 12,7 C 5,1 C 0,0 UV-I 0,0 C 56 % 90 % 0 % 993,5 hPa 0,0 l/m 16,5 km/h (3 Bft) 0 min 12,3 km/h (3 Bft)
28.02.2010 22:10 12,7 C 5,1 C 0,0 UV-I 0,0 C 56 % 90 % 0 % 993,5 hPa 0,0 l/m 17,7 km/h (3 Bft) 0 min 18,3 km/h (3 Bft)
28.02.2010 22:12 12,6 C 5,1 C 0,0 UV-I 0,0 C 56 % 90 % 0 % 993,9 hPa 0,0 l/m 17,7 km/h (3 Bft) 0 min 6,5 km/h (2 Bft)
28.02.2010 22:14 12,7 C 5,1 C 0,0 UV-I 0,0 C 56 % 90 % 0 % 993,9 hPa 0,0 l/m 16,5 km/h (3 Bft) 0 min 6,7 km/h (2 Bft)
28.02.2010 22:16 12,7 C 5,1 C 0,0 UV-I 0,0 C 56 % 90 % 0 % 993,9 hPa 0,0 l/m 16,1 km/h (3 Bft) 0 min 16,8 km/h (3 Bft)
28.02.2010 22:18 12,6 C 5,0 C 0,0 UV-I 0,0 C 56 % 90 % 0 % 993,9 hPa 0,0 l/m 16,5 km/h (3 Bft) 0 min 11,3 km/h (2 Bft)
28.02.2010 22:20 12,6 C 5,1 C 0,0 UV-I 0,0 C 56 % 90 % 0 % 993,9 hPa 0,0 l/m 16,9 km/h (3 Bft) 0 min 11,3 km/h (2 Bft)
28.02.2010 22:22 12,6 C 5,1 C 0,0 UV-I 0,0 C 56 % 90 % 0 % 993,9 hPa 0,0 l/m 16,5 km/h (3 Bft) 0 min 24,5 km/h (4 Bft)
28.02.2010 22:26 12,7 C 5,1 C 0,0 UV-I 0,0 C 56 % 90 % 0 % 993,9 hPa 0,0 l/m 17,7 km/h (3 Bft) 0 min 11,3 km/h (2 Bft)
28.02.2010 22:28 12,6 C 5,0 C 0,0 UV-I 0,0 C 56 % 90 % 0 % 993,9 hPa 0,0 l/m 16,9 km/h (3 Bft) 0 min 16,8 km/h (3 Bft)
28.02.2010 22:30 12,7 C 5,0 C 0,0 UV-I 0,0 C 56 % 90 % 0 % 993,9 hPa 0,0 l/m 16,1 km/h (3 Bft) 0 min 9,9 km/h (2 Bft)
28.02.2010 22:32 12,6 C 4,9 C 0,0 UV-I 0,0 C 56 % 90 % 0 % 994,4 hPa 0,0 l/m 17,3 km/h (3 Bft) 0 min 20,2 km/h (4 Bft)
28.02.2010 22:34 12,7 C 5,0 C 0,0 UV-I 0,0 C 56 % 90 % 0 % 994,4 hPa 0,0 l/m 16,9 km/h (3 Bft) 0 min 16,4 km/h (3 Bft)
28.02.2010 22:36 12,6 C 4,9 C 0,0 UV-I 0,0 C 56 % 90 % 0 % 994,4 hPa 0,0 l/m 17,7 km/h (3 Bft) 0 min 11,5 km/h (2 Bft)
28.02.2010 22:38 12,6 C 4,9 C 0,0 UV-I 0,0 C 56 % 90 % 0 % 994,4 hPa 0,0 l/m 18,1 km/h (3 Bft) 0 min 7,7 km/h (2 Bft)
28.02.2010 22:40 12,6 C 4,9 C 0,0 UV-I 0,0 C 56 % 90 % 0 % 994,4 hPa 0,0 l/m 18,1 km/h (3 Bft) 0 min 9,9 km/h (2 Bft)
28.02.2010 22:42 12,6 C 4,9 C 0,0 UV-I 0,0 C 56 % 90 % 0 % 994,4 hPa 0,0 l/m 18,1 km/h (3 Bft) 0 min 11,3 km/h (2 Bft)
28.02.2010 22:44 12,6 C 4,9 C 0,0 UV-I 0,0 C 56 % 90 % 0 % 994,4 hPa 0,0 l/m 17,3 km/h (3 Bft) 0 min 17,1 km/h (3 Bft)
28.02.2010 22:46 12,6 C 4,9 C 0,0 UV-I 0,0 C 56 % 91 % 0 % 994,4 hPa 0,0 l/m 15,7 km/h (3 Bft) 0 min 9,6 km/h (2 Bft)
28.02.2010 22:48 12,6 C 4,9 C 0,0 UV-I 0,0 C 56 % 91 % 0 % 994,4 hPa 0,0 l/m 14,5 km/h (3 Bft) 0 min 16,8 km/h (3 Bft)
28.02.2010 22:50 12,6 C 4,9 C 0,0 UV-I 0,0 C 56 % 91 % 0 % 994,4 hPa 0,0 l/m 12,4 km/h (3 Bft) 0 min 10,3 km/h (2 Bft)
28.02.2010 22:52 12,6 C 4,9 C 0,0 UV-I 0,0 C 56 % 91 % 0 % 994,8 hPa 0,0 l/m 13,3 km/h (3 Bft) 0 min 15,2 km/h (3 Bft)
28.02.2010 22:54 12,6 C 4,9 C 0,0 UV-I 0,0 C 56 % 91 % 0 % 994,8 hPa 0,0 l/m 13,3 km/h (3 Bft) 0 min 15,4 km/h (3 Bft)
28.02.2010 22:56 12,6 C 4,9 C 0,0 UV-I 0,0 C 56 % 91 % 0 % 994,8 hPa 0,0 l/m 14,1 km/h (3 Bft) 0 min 8,9 km/h (2 Bft)
28.02.2010 23:00 12,6 C 4,9 C 0,0 UV-I 0,0 C 56 % 91 % 0 % 994,8 hPa 0,0 l/m 14,5 km/h (3 Bft) 0 min 11,3 km/h (2 Bft)
28.02.2010 23:02 12,6 C 4,9 C 0,0 UV-I 0,0 C 56 % 91 % 0 % 994,8 hPa 0,0 l/m 14,5 km/h (3 Bft) 0 min 8,2 km/h (2 Bft)
28.02.2010 23:04 12,6 C 4,9 C 0,0 UV-I 0,0 C 56 % 91 % 0 % 994,8 hPa 0,0 l/m 14,5 km/h (3 Bft) 0 min 8,2 km/h (2 Bft)
28.02.2010 23:06 12,6 C 4,9 C 0,0 UV-I 0,0 C 56 % 91 % 0 % 994,8 hPa 0,0 l/m 14,9 km/h (3 Bft) 0 min 7,0 km/h (2 Bft)
28.02.2010 23:08 12,6 C 4,9 C 0,0 UV-I 0,0 C 56 % 91 % 0 % 994,8 hPa 0,0 l/m 15,7 km/h (3 Bft) 0 min 17,3 km/h (3 Bft)
28.02.2010 23:10 12,6 C 4,9 C 0,0 UV-I 0,0 C 56 % 91 % 0 % 994,8 hPa 0,0 l/m 16,1 km/h (3 Bft) 0 min 11,3 km/h (2 Bft)
28.02.2010 23:12 12,6 C 4,8 C 0,0 UV-I 0,0 C 56 % 91 % 0 % 995,1 hPa 0,0 l/m 16,1 km/h (3 Bft) 0 min 12,5 km/h (3 Bft)
28.02.2010 23:14 12,6 C 4,9 C 0,0 UV-I 0,0 C 56 % 91 % 0 % 995,1 hPa 0,0 l/m 15,3 km/h (3 Bft) 0 min 7,2 km/h (2 Bft)
28.02.2010 23:18 12,6 C 4,8 C 0,0 UV-I 0,0 C 56 % 91 % 0 % 995,1 hPa 0,0 l/m 14,5 km/h (3 Bft) 0 min 12,8 km/h (3 Bft)
28.02.2010 23:20 12,6 C 4,8 C 0,0 UV-I 0,0 C 56 % 91 % 0 % 995,1 hPa 0,0 l/m 13,3 km/h (3 Bft) 0 min 7,2 km/h (2 Bft)
28.02.2010 23:22 12,6 C 4,8 C 0,0 UV-I 0,0 C 56 % 91 % 0 % 995,1 hPa 0,1 l/m 12,8 km/h (3 Bft) 0 min 17,3 km/h (3 Bft)
28.02.2010 23:24 12,6 C 4,8 C 0,0 UV-I 0,0 C 56 % 91 % 0 % 995,1 hPa 0,0 l/m 13,7 km/h (3 Bft) 0 min 10,6 km/h (2 Bft)
28.02.2010 23:26 12,6 C 4,8 C 0,0 UV-I 0,0 C 56 % 91 % 0 % 995,1 hPa 0,8 l/m 13,7 km/h (3 Bft) 0 min 10,3 km/h (2 Bft)
28.02.2010 23:30 12,6 C 4,8 C 0,0 UV-I 0,0 C 56 % 91 % 0 % 995,1 hPa 0,0 l/m 15,3 km/h (3 Bft) 0 min 14,2 km/h (3 Bft)
28.02.2010 23:32 12,6 C 4,8 C 0,0 UV-I 0,0 C 56 % 91 % 0 % 995,6 hPa 0,1 l/m 16,5 km/h (3 Bft) 0 min 23,3 km/h (4 Bft)
28.02.2010 23:36 12,6 C 4,8 C 0,0 UV-I 0,0 C 56 % 91 % 0 % 995,6 hPa 0,0 l/m 15,7 km/h (3 Bft) 0 min 21,2 km/h (4 Bft)
28.02.2010 23:38 12,6 C 4,9 C 0,0 UV-I 0,0 C 56 % 91 % 0 % 995,6 hPa 0,1 l/m 16,1 km/h (3 Bft) 0 min 12,0 km/h (2 Bft)
28.02.2010 23:40 12,6 C 4,8 C 0,0 UV-I 0,0 C 56 % 91 % 0 % 995,6 hPa 0,0 l/m 16,5 km/h (3 Bft) 0 min 9,6 km/h (2 Bft)
28.02.2010 23:42 12,6 C 4,9 C 0,0 UV-I 0,0 C 56 % 91 % 0 % 995,6 hPa 0,0 l/m 16,5 km/h (3 Bft) 0 min 17,3 km/h (3 Bft)
28.02.2010 23:44 12,6 C 4,9 C 0,0 UV-I 0,0 C 56 % 90 % 0 % 995,6 hPa 0,0 l/m 18,1 km/h (3 Bft) 0 min 26,0 km/h (4 Bft)
28.02.2010 23:48 12,6 C 4,8 C 0,0 UV-I 0,0 C 56 % 90 % 0 % 995,6 hPa 0,0 l/m 21,3 km/h (4 Bft) 0 min 22,9 km/h (4 Bft)
28.02.2010 23:50 12,6 C 4,8 C 0,0 UV-I 0,0 C 56 % 90 % 0 % 995,6 hPa 0,0 l/m 22,1 km/h (4 Bft) 0 min 25,0 km/h (4 Bft)
28.02.2010 23:52 12,6 C 4,8 C 0,0 UV-I 0,0 C 56 % 90 % 0 % 995,9 hPa 0,0 l/m 22,9 km/h (4 Bft) 0 min 12,0 km/h (2 Bft)
28.02.2010 23:54 12,6 C 4,8 C 0,0 UV-I 0,0 C 56 % 90 % 0 % 995,9 hPa 0,0 l/m 22,1 km/h (4 Bft) 0 min 19,2 km/h (3 Bft)
28.02.2010 23:58 12,6 C 4,8 C 0,0 UV-I 0,0 C 56 % 90 % 0 % 995,9 hPa 0,0 l/m 17,7 km/h (3 Bft) 0 min 15,4 km/h (3 Bft)
_ Min-Zeit 19:18 17:22 00:00 00:00 00:00 13:14 00:00 13:32 - 00:00 - 00:18
Minimum _ 12,6 C 4,8 C 0,0 UV-I 0,0 C 49 % 68 % 0 % 976,4 hPa - 1,2 km/h (1 Bft) - 0,0 km/h (0 Bft)
_ Max-Zeit 12:48 12:12 10:28 10:32 10:42 08:56 10:32 23:52 18:50 17:02 00:00 16:58
Maximum _ 14,7 C 11,8 C 0,9 UV-I 2,0 C 60 % 94 % 57 % 995,9 hPa 1,8 l/m 43,0 km/h
N-NO (6 Bft)
0 min 86,7 km/h
SW (9 Bft)
Durchschnitt _ 13,7 C 7,2 C 0,0 UV-I 0,1 C 54 % 84 % 2 % 983,7 hPa #16,6 l/m 16,9 km/h (3 Bft) #0 min. 15,2 km/h (3 Bft)
© 2012 W. Hausmann